GFSGL_sfc_wetblb_057.txt.gz
Wetbulb
57.25 58.31 59.99 61.43 64.15 66.12 67.08 68.20 68.78 69.76 69.93 70.07 70.60 71.08 71.64 71.87 72.11 71.68 70.20 70.73 68.58 66.71 67.03 66.42 66.44 67.46 66.51 65.88 65.96 65.51 64.68 64.07 61.80 62.04 61.81 63.06 62.81 63.83 65.23 65.71 65.54 67.10 65.46
56.89 57.58 59.07 61.55 63.64 64.87 65.86 67.20 68.49 68.93 69.99 70.13 70.49 70.99 71.61 71.79 71.84 70.55 69.30 68.51 66.47 65.68 67.21 67.87 66.96 66.24 66.91 66.67 65.62 65.62 64.88 64.68 63.23 62.15 60.28 61.46 62.05 64.12 62.97 63.16 64.00 65.39 66.47
58.60 58.79 59.37 61.41 63.15 64.56 65.49 67.25 68.34 68.93 69.62 70.18 70.60 71.06 71.42 71.53 70.78 69.05 70.01 68.55 68.40 68.90 68.07 67.03 67.39 66.56 65.96 65.49 65.73 65.27 65.01 63.81 62.36 62.93 60.47 62.20 61.30 61.50 60.96 62.31 62.76 63.21 63.50
61.31 61.69 60.28 62.26 64.00 64.84 65.87 67.07 68.14 69.10 69.44 69.98 70.71 71.25 71.18 70.75 70.35 69.87 69.23 68.29 68.00 65.53 66.11 67.80 67.29 66.56 66.41 66.15 65.54 65.38 64.30 63.13 61.64 62.69 60.93 60.17 60.21 60.32 61.29 59.59 59.54 61.66 61.27
59.79 61.67 62.68 64.13 65.27 65.32 65.96 67.16 68.29 69.12 69.54 70.28 70.57 70.67 70.76 70.16 69.33 69.39 67.48 66.46 65.30 66.63 66.89 66.72 67.24 65.48 61.77 63.51 65.07 65.12 64.44 61.87 60.26 62.40 59.78 58.93 58.65 58.96 59.23 60.07 59.33 60.11 60.98
58.96 60.50 63.89 65.36 64.98 65.50 66.62 67.04 67.41 68.70 69.52 70.05 69.92 70.21 69.73 68.55 52.70 55.61 62.84 65.92 66.81 66.40 65.89 65.94 66.25 60.43 59.69 55.15 56.73 57.00 59.16 61.42 63.07 62.16 60.81 58.09 58.58 59.33 59.81 58.64 58.64 58.35 57.44
58.92 60.24 63.33 65.94 64.95 65.27 65.64 65.82 66.20 67.33 69.34 69.32 69.93 69.70 69.38 68.10 50.15 51.41 55.43 66.70 66.57 66.39 66.03 65.30 64.22 64.54 61.59 63.61 54.05 53.61 54.00 53.77 57.38 64.46 61.85 60.30 58.77 59.23 60.66 60.33 60.21 59.33 59.83
58.29 59.50 64.65 65.11 64.38 64.76 65.09 65.32 65.97 68.39 69.20 69.13 68.62 68.03 65.53 58.53 47.30 47.68 52.38 66.91 66.44 66.11 66.03 65.65 64.68 64.16 63.62 62.77 61.38 60.92 61.02 63.03 63.42 63.58 64.72 62.81 62.00 61.87 60.01 59.87 60.82 58.64 59.98
59.21 59.14 64.45 64.07 63.40 64.22 64.95 65.60 66.71 67.69 66.89 66.71 65.52 63.65 59.53 55.71 45.82 47.32 58.64 65.52 64.68 64.54 64.48 64.50 64.47 63.97 50.99 49.86 59.65 59.26 60.97 60.49 51.53 50.72 52.96 51.82 49.06 51.07 56.55 61.24 59.40 59.77 56.99
58.94 60.00 64.68 64.63 64.80 65.40 65.22 65.55 66.07 66.64 64.69 61.63 61.62 63.82 57.56 58.80 44.40 46.78 58.18 64.09 62.54 61.80 62.21 62.84 49.82 59.78 44.42 46.05 60.11 58.85 58.39 59.15 60.12 59.68 59.94 54.84 55.95 55.75 51.12 63.98 61.90 59.01 57.57
59.94 62.16 64.30 64.34 65.23 64.86 65.06 65.02 63.88 62.99 60.50 60.88 60.83 60.41 60.72 58.87 53.94 45.51 49.68 63.55 62.29 62.16 62.42 62.78 58.80 43.68 43.88 45.51 51.13 59.51 57.79 59.77 54.72 60.41 59.21 60.10 60.25 59.41 60.13 61.28 62.81 62.00 58.84
60.68 62.60 63.75 63.89 63.68 63.78 63.35 62.44 61.87 59.66 59.92 59.50 59.33 59.31 59.96 60.11 50.66 45.38 46.78 53.22 54.56 62.99 62.56 60.93 52.60 42.61 42.97 44.60 52.16 43.88 44.96 53.30 60.30 57.82 58.34 57.93 58.26 58.67 59.84 60.63 61.47 62.27 63.96
61.88 62.41 62.79 63.20 62.58 63.19 61.23 60.44 59.06 59.77 58.78 58.59 58.26 58.30 58.74 60.49 59.40 44.71 44.24 44.96 49.98 61.62 62.80 50.68 41.68 41.34 41.88 45.52 42.93 44.06 46.89 59.72 59.19 58.40 58.09 57.53 58.73 59.76 60.60 60.40 62.10 60.91 60.31
61.75 61.85 61.89 61.19 61.43 61.20 61.10 61.65 61.77 59.89 59.10 58.62 58.93 58.78 59.05 59.10 59.25 58.63 56.49 56.21 48.15 52.11 48.65 51.33 48.96 50.06 48.44 50.03 52.39 54.80 59.96 60.15 59.36 58.35 57.75 58.60 59.56 59.61 59.50 60.19 59.69 59.42 58.97
60.91 60.75 60.68 61.33 60.91 59.74 58.92 62.36 62.63 63.02 59.94 60.60 60.43 59.17 58.18 58.12 58.99 54.82 55.75 59.41 58.10 53.75 54.81 57.28 58.26 58.07 57.34 57.99 58.86 58.82 59.00 59.20 58.95 59.15 59.02 58.71 58.30 58.40 58.05 58.85 59.07 58.76 59.63
59.58 61.07 59.25 58.23 58.35 58.76 57.77 54.79 41.63 44.75 44.96 45.69 49.72 56.59 59.01 49.80 44.60 44.06 44.06 43.51 43.51 44.96 58.39 57.68 57.33 57.44 57.44 57.50 57.34 57.61 58.26 56.28 58.62 58.78 58.53 58.67 58.46 57.89 58.28 57.89 57.83 56.84 56.52
61.08 59.59 58.23 57.80 59.59 59.40 59.15 56.74 52.85 47.21 40.99 40.02 40.98 42.61 46.54 45.98 42.24 41.70 41.88 42.43 41.88 49.40 58.37 57.93 57.72 57.57 57.54 57.75 57.83 57.70 57.50 58.45 59.27 58.25 57.76 57.43 57.86 57.90 56.96 56.63 57.39 59.63 57.65
59.53 51.44 60.30 61.24 61.00 58.87 58.56 58.62 58.15 56.78 55.41 53.69 42.19 44.54 40.87 40.98 40.61 40.43 41.52 46.69 56.25 55.26 58.70 56.77 57.37 58.05 58.49 58.38 58.24 58.14 58.25 58.13 58.28 58.16 58.26 58.05 58.43 58.00 57.92 56.19 56.69 57.31 56.91
61.07 61.25 59.84 59.03 59.16 57.56 59.44 59.29 58.96 58.01 55.03 51.26 50.83 46.18 42.25 39.52 39.71 41.16 44.42 57.59 57.46 56.05 56.37 57.08 60.29 59.42 58.39 58.60 58.49 58.37 58.31 57.96 57.82 58.20 58.24 58.41 58.41 57.97 57.28 58.33 57.52 48.04 49.68
61.40 50.15 54.68 59.79 60.61 59.31 59.00 58.66 57.57 55.61 55.23 54.20 52.49 51.90 52.72 52.55 54.99 56.59 58.01 57.10 56.73 57.04 58.01 57.56 58.61 58.49 58.79 60.29 59.23 58.19 57.75 57.78 58.16 58.21 58.30 58.09 58.50 59.63 57.85 56.90 56.94 55.91 55.39
59.63 60.80 52.89 61.92 61.14 59.19 58.43 56.91 55.81 55.29 53.87 53.49 53.57 52.76 42.97 56.58 55.91 56.31 56.57 58.08 57.73 58.87 58.97 60.06 58.25 59.27 60.81 60.99 60.22 59.34 59.46 59.46 57.77 59.31 58.93 59.00 59.94 56.94 58.38 57.79 58.28 57.96 57.62
60.86 59.57 59.54 59.11 59.54 59.32 59.08 58.20 56.49 55.32 54.85 54.50 53.54 47.48 39.52 52.94 52.23 50.80 50.15 51.69 51.99 58.31 57.02 55.49 53.77 53.51 53.99 56.60 61.47 59.83 59.28 59.91 59.27 59.56 58.40 57.66 57.71 58.38 58.81 60.55 56.78 58.63 61.24
61.43 58.75 58.86 58.87 59.11 53.55 57.55 57.25 55.94 54.99 54.76 54.93 53.93 50.95 50.22 48.99 47.33 47.07 46.76 48.20 47.43 48.67 49.16 51.11 51.52 52.46 51.58 53.04 51.59 57.25 60.64 61.40 61.83 59.85 61.40 61.55 61.62 61.74 62.11 61.83 61.48 60.87 58.91
61.82 58.69 57.93 57.88 58.37 58.07 57.56 56.83 55.03 51.18 55.45 53.82 50.91 48.02 46.74 45.69 44.43 43.81 44.72 44.07 45.41 45.35 44.27 44.16 48.06 48.68 47.43 49.33 53.27 54.53 55.82 60.04 60.27 60.45 61.39 60.12 58.61 56.57 55.98 53.84 53.55 52.65 49.63
59.98 57.97 57.55 57.73 57.88 57.11 56.33 55.55 55.36 54.23 52.25 49.47 46.27 45.53 44.27 42.93 42.27 42.05 42.26 42.75 42.73 41.77 41.26 41.85 41.85 42.96 44.42 45.32 46.46 44.95 36.25 34.22 48.57 45.72 54.66 50.99 48.65 47.94 46.86 45.54 44.41 43.10 42.90
59.00 57.70 57.46 57.59 57.50 56.98 55.15 52.71 51.15 50.64 48.38 45.89 44.65 44.81 42.44 40.84 40.03 39.33 40.38 40.69 40.02 39.84 39.81 38.96 38.71 38.19 38.55 37.39 36.57 33.56 33.51 34.27 40.80 36.88 49.85 50.58 48.01 45.54 43.57 44.96 42.78 42.11 41.86

GFSGL_sfc_wetblb_060.txt.gz
Wetbulb
62.48 62.82 61.94 62.15 63.14 64.84 66.41 68.80 70.84 73.43 72.66 71.47 72.28 73.21 73.54 73.34 73.70 73.77 74.37 74.23 73.62 72.98 72.42 71.68 71.18 71.23 69.52 68.13 68.83 67.92 67.52 66.55 63.25 65.64 67.00 66.19 66.39 65.44 65.96 66.95 67.85 67.67 66.30
61.24 63.04 62.35 62.33 63.19 64.15 65.87 68.49 70.08 70.84 72.44 72.57 72.95 72.76 72.39 72.41 73.81 73.95 73.84 73.34 72.25 71.28 71.13 70.72 70.03 69.53 70.26 69.95 68.87 68.76 67.69 67.64 64.98 64.19 64.41 64.17 64.72 65.82 65.14 66.53 66.13 67.69 67.41
59.40 61.88 63.50 63.83 64.32 64.41 65.82 68.05 69.87 69.97 71.66 72.54 72.68 72.32 71.80 72.26 73.40 74.12 73.64 72.24 71.63 71.29 70.71 70.08 69.91 69.61 69.12 68.81 68.65 67.39 66.91 66.81 66.85 65.34 62.84 63.84 63.56 65.71 62.56 64.95 64.93 64.97 66.00
58.65 60.73 62.17 64.26 65.77 65.47 66.24 67.76 69.46 69.59 70.74 72.11 72.42 72.14 72.04 72.74 73.38 73.60 73.03 72.10 71.37 70.72 70.88 70.54 69.86 69.17 68.88 68.72 67.96 67.47 67.33 66.26 65.60 64.22 63.55 61.76 62.36 62.12 62.58 61.37 62.09 62.99 62.74
57.96 59.75 61.69 63.89 65.64 66.77 66.44 67.73 69.30 69.50 70.17 71.57 71.84 71.95 72.63 72.92 72.65 72.87 72.09 71.78 70.80 70.49 70.32 69.51 70.06 67.63 63.68 65.17 67.18 67.48 66.97 65.73 64.07 64.34 61.41 61.43 60.38 59.57 59.64 61.09 61.79 62.09 62.45
58.03 58.98 61.35 62.88 64.52 65.96 67.00 68.24 68.95 69.13 70.03 70.94 71.27 71.62 72.40 71.77 54.46 57.10 67.26 70.74 69.94 69.26 67.72 68.71 68.63 63.30 62.40 57.57 56.95 57.26 63.80 66.46 64.47 62.19 63.34 61.35 59.92 61.11 60.71 61.05 60.71 59.98 59.12
57.88 58.92 61.10 62.53 63.80 65.19 67.19 68.03 68.33 69.61 71.56 71.28 71.49 71.93 71.70 71.71 52.84 54.33 56.92 69.16 68.69 68.05 68.03 67.95 67.39 67.19 64.35 66.82 55.71 54.51 55.49 54.52 57.08 65.39 64.57 63.22 61.57 61.99 63.37 62.08 59.74 60.58 61.71
56.76 58.75 60.33 61.80 63.29 65.32 67.38 67.87 69.36 70.36 72.24 72.40 71.91 71.86 70.73 67.53 50.74 50.99 54.09 68.85 68.45 68.15 68.63 68.29 67.57 66.70 66.30 65.15 64.54 63.95 63.89 61.62 62.55 65.70 66.16 65.36 64.81 64.92 63.43 64.19 63.54 62.45 63.69
56.47 58.20 59.51 61.56 63.35 64.86 66.79 67.86 67.70 68.45 69.38 69.41 70.21 70.48 70.86 63.40 47.66 49.49 59.24 67.74 67.37 67.62 67.53 67.12 65.94 66.01 52.86 51.44 63.62 63.09 61.59 61.56 54.14 50.38 51.70 50.98 50.40 52.42 58.59 62.56 61.14 59.93 59.39
56.72 57.96 60.50 63.07 62.10 64.70 65.73 65.76 67.58 68.35 68.86 68.85 69.23 69.70 61.68 63.49 46.05 48.77 57.85 66.34 66.59 65.48 65.45 65.09 51.51 60.69 46.23 47.32 63.79 60.99 60.07 60.96 63.36 63.07 61.81 56.88 57.15 56.96 52.21 62.26 63.06 60.14 59.81
57.62 58.65 61.54 62.23 62.77 64.77 65.19 66.62 67.53 67.39 67.88 67.37 66.99 65.91 63.58 59.90 55.56 47.32 49.65 66.53 65.30 64.58 64.27 63.93 64.07 44.69 44.05 45.32 52.00 62.40 59.20 61.68 58.50 63.67 62.84 62.67 62.84 62.35 62.24 64.68 65.93 63.19 60.47
56.49 58.45 60.86 60.26 63.95 64.95 65.45 65.47 66.02 66.77 65.83 64.90 64.81 62.79 63.36 64.63 53.71 46.96 47.32 53.40 56.33 64.31 63.33 64.26 59.71 43.11 43.33 44.60 52.87 44.78 46.05 54.49 62.23 60.25 60.53 60.15 60.19 61.51 62.13 63.53 64.86 66.14 66.03
58.25 59.14 59.76 63.20 64.03 64.99 63.64 63.98 65.54 66.35 64.66 63.12 62.79 61.90 62.98 63.64 62.27 45.16 45.14 48.22 47.88 63.40 64.28 53.66 43.14 41.51 42.95 47.77 42.35 43.51 46.68 62.32 60.97 58.48 58.27 60.57 61.22 62.35 63.10 63.68 64.02 64.52 65.51
58.23 59.90 62.42 62.12 62.27 62.90 63.87 65.78 65.82 64.77 63.35 63.05 62.62 62.37 63.23 63.37 62.55 62.78 61.94 61.10 51.04 57.59 51.51 56.06 51.59 51.95 49.55 53.27 54.03 55.84 63.30 63.22 62.57 61.92 60.73 60.44 61.17 61.22 61.15 62.53 61.68 62.42 61.53
58.34 61.17 61.83 61.53 61.89 62.44 63.63 64.77 64.41 64.67 62.67 63.33 63.44 63.79 62.53 61.86 62.22 58.01 59.11 63.04 63.76 58.47 59.08 60.53 60.81 62.28 60.72 60.29 61.36 61.28 61.31 61.98 61.08 60.74 60.16 59.96 59.80 59.88 60.79 61.80 62.01 60.83 60.06
60.64 60.47 60.90 60.51 60.44 62.03 61.27 55.52 43.46 46.03 43.85 45.63 50.03 59.42 63.18 51.75 45.32 44.23 43.51 43.69 45.14 46.23 59.35 60.54 60.64 61.45 60.03 60.15 60.40 59.67 61.20 58.43 61.46 61.96 60.39 59.62 59.35 60.44 60.02 60.17 60.16 59.61 59.86
60.49 59.85 59.84 60.30 61.73 60.39 61.29 58.70 56.30 51.53 42.48 41.30 41.88 45.13 47.44 47.33 42.78 42.24 42.24 42.42 43.15 47.66 61.09 59.99 59.61 59.55 60.12 60.62 60.51 60.30 60.15 60.34 61.20 60.89 60.80 61.89 60.94 59.90 58.54 58.65 59.94 60.24 57.13
60.93 53.05 63.03 61.66 62.53 62.42 62.19 61.52 60.91 60.35 59.24 58.07 45.11 47.87 41.94 41.15 40.79 41.15 42.42 47.35 56.60 56.73 61.66 60.00 60.13 60.14 60.19 60.38 60.68 60.44 60.19 60.19 60.22 59.33 59.35 58.91 59.90 59.27 58.91 58.67 58.36 60.13 60.30
62.83 62.10 62.53 63.17 63.76 61.91 63.05 62.55 61.69 61.69 60.14 57.38 54.13 47.19 42.58 39.69 40.61 41.88 44.60 59.78 59.13 59.95 60.91 60.84 61.00 61.01 61.10 61.25 60.96 60.96 60.70 59.95 59.39 59.52 59.42 59.11 59.72 59.76 59.35 57.95 57.09 48.13 51.05
62.73 52.26 57.16 63.28 62.71 62.67 61.43 61.73 60.61 58.56 57.99 58.73 57.90 54.24 51.78 52.96 55.37 56.74 59.93 60.64 58.66 58.51 58.32 60.30 62.09 62.39 61.46 60.62 60.44 60.76 59.93 58.59 60.09 59.35 59.45 59.94 60.14 59.37 58.22 59.08 60.85 58.99 57.59
63.04 62.86 54.54 62.86 61.59 62.71 61.76 60.60 59.04 58.91 58.22 58.59 57.25 56.00 44.60 58.82 58.63 58.38 57.71 59.98 57.75 58.51 59.07 59.57 61.56 61.63 61.43 61.15 61.05 59.33 59.09 59.35 59.38 60.00 60.02 59.71 61.04 58.73 62.29 59.48 60.80 58.40 57.68
63.35 62.33 62.40 62.59 61.17 60.77 60.14 60.40 59.15 57.28 57.52 55.66 53.90 49.71 40.06 57.56 56.06 54.51 55.33 55.51 59.36 61.05 61.02 60.93 60.56 60.32 62.01 61.57 61.61 61.38 61.37 60.38 60.61 61.19 58.63 61.33 60.80 60.16 60.76 60.68 60.94 60.63 60.63
63.82 63.36 63.07 61.92 60.12 54.44 58.23 57.94 57.52 56.41 55.56 55.04 55.17 53.95 52.20 50.50 49.92 50.63 50.91 54.46 58.31 58.08 58.37 59.13 56.93 58.45 60.10 58.76 56.04 60.28 61.54 61.48 62.69 64.03 62.51 62.20 60.98 61.66 61.41 60.99 61.37 60.22 60.44
62.04 60.42 60.15 59.00 58.10 57.35 57.87 57.52 57.82 52.22 55.84 53.78 50.71 49.87 48.56 47.79 47.75 47.72 48.89 49.51 52.58 51.52 51.67 52.81 55.66 57.36 57.90 57.79 57.95 59.60 60.39 58.86 63.30 62.79 62.18 61.03 59.37 57.01 57.65 55.99 54.59 52.80 50.42
61.96 60.67 60.14 58.76 57.88 56.73 56.71 57.06 56.41 55.34 52.60 48.59 48.29 47.96 45.98 45.22 46.35 46.70 48.68 48.23 47.13 45.48 46.76 50.29 50.28 51.35 50.96 50.96 49.07 46.39 36.16 34.86 50.97 46.32 55.73 52.25 48.93 48.81 47.90 46.73 45.77 45.22 45.85
60.11 59.98 59.37 58.56 57.63 57.39 57.10 54.46 53.53 52.02 47.93 46.27 45.39 44.34 44.44 45.00 45.37 45.74 46.04 46.30 45.45 42.34 40.85 41.05 41.37 42.97 43.09 42.06 39.17 34.25 33.95 34.48 42.09 36.70 54.51 54.25 52.31 51.13 49.88 48.76 46.45 45.31 45.14

GFSGL_sfc_wetblb_063.txt.gz
Wetbulb
60.36 61.12 63.16 63.82 64.17 65.08 66.14 67.40 68.75 70.99 71.94 72.02 72.80 72.77 73.37 74.47 76.38 76.28 75.07 74.06 73.50 74.42 74.55 73.29 72.98 74.22 71.03 69.69 69.57 68.85 67.79 66.97 63.54 64.64 67.41 68.15 67.29 66.77 66.99 67.53 68.38 68.05 65.70
59.84 60.09 60.64 63.27 64.51 65.97 65.87 66.49 68.34 69.79 71.65 72.08 71.80 70.66 71.60 73.53 74.66 74.99 73.71 72.83 73.45 73.42 73.05 73.11 71.83 71.28 72.14 72.68 69.38 70.06 69.09 69.39 64.62 64.91 66.75 65.66 65.55 66.75 67.07 66.50 67.59 68.21 68.04
59.17 59.26 61.39 62.80 64.37 66.83 66.84 67.57 68.40 68.69 70.18 71.13 71.74 72.00 72.28 74.19 74.90 74.35 73.40 73.49 74.10 74.12 73.72 72.03 71.37 71.75 70.46 70.39 70.05 69.06 67.80 68.02 67.39 65.54 65.99 65.08 64.79 65.55 65.21 65.71 66.52 66.84 65.54
58.40 58.56 60.23 62.38 64.36 65.24 67.49 67.87 67.22 67.02 68.79 70.06 72.31 71.83 72.98 73.23 73.26 73.29 73.69 74.54 74.07 73.31 73.67 72.52 70.83 71.09 71.07 70.52 69.45 69.52 68.87 66.89 66.58 66.45 65.67 64.00 63.34 64.31 64.68 63.04 63.12 64.78 63.94
57.39 57.99 59.93 62.00 62.98 63.74 64.88 67.32 67.39 68.18 68.81 68.80 71.10 72.25 73.84 74.25 73.10 74.01 74.28 74.61 73.89 72.59 71.97 70.95 71.75 69.19 64.88 67.11 69.67 69.33 69.41 66.42 66.40 66.10 65.14 64.08 62.66 61.96 61.94 63.78 63.72 62.70 63.91
56.61 56.67 58.84 59.43 60.56 63.22 64.91 66.92 68.64 67.96 69.65 70.15 70.94 72.12 73.43 72.28 58.62 58.88 70.25 74.09 72.53 71.61 71.04 70.34 70.65 65.02 63.27 58.80 59.02 58.27 63.60 67.19 66.36 65.01 66.19 63.56 61.82 61.66 62.74 62.05 61.90 61.37 59.32
55.94 56.59 57.90 58.65 59.34 61.32 63.01 65.14 66.40 69.11 71.23 71.83 71.90 73.22 73.54 74.26 53.54 53.96 58.45 72.82 71.56 71.44 70.64 69.91 69.01 68.48 65.46 67.79 57.76 56.31 56.73 57.15 58.42 67.14 64.92 62.33 63.55 63.80 63.57 62.85 62.20 63.19 63.84
55.26 55.83 57.26 57.88 58.73 61.12 62.05 65.23 67.02 69.55 71.23 72.01 72.63 73.95 74.35 71.62 50.78 53.06 55.74 71.83 71.33 70.06 69.68 69.16 69.15 68.94 67.38 66.37 66.43 65.30 65.21 64.66 64.77 65.96 65.10 63.29 66.39 65.34 66.10 65.79 64.35 62.86 64.66
53.88 55.32 56.48 57.61 58.34 60.34 61.68 65.42 67.67 68.88 70.36 71.95 73.14 73.73 72.98 66.57 49.80 52.70 60.83 70.35 69.03 68.47 68.34 68.60 68.09 67.31 55.44 52.90 65.74 64.43 64.08 63.89 53.93 52.02 52.57 52.57 51.89 52.85 60.25 64.80 61.69 60.79 60.40
53.60 55.51 56.91 56.70 57.65 60.02 62.98 65.51 68.09 69.25 70.05 71.07 71.09 72.05 64.98 67.66 48.52 51.64 59.28 67.84 67.52 66.48 67.68 66.66 52.60 60.90 47.49 49.85 65.83 64.69 62.86 63.08 60.69 62.50 62.80 57.87 59.13 57.50 53.17 66.18 64.64 60.32 60.85
54.88 56.45 56.62 57.97 58.91 61.96 63.67 66.26 68.27 69.06 68.68 68.94 68.98 69.40 69.40 66.30 60.10 47.94 49.41 67.49 65.97 65.71 65.09 64.41 64.13 45.63 44.95 46.59 48.51 65.11 62.53 61.82 57.78 63.87 64.50 63.62 63.69 63.37 61.93 62.98 63.31 64.17 63.22
55.25 55.87 55.96 59.03 59.36 62.35 63.50 66.53 67.99 68.60 66.79 66.34 65.68 67.11 67.44 66.63 54.14 47.98 49.27 51.66 58.36 65.81 64.56 64.77 58.29 43.27 43.87 45.68 53.94 45.68 48.04 54.02 64.41 63.42 62.33 62.66 62.36 61.95 63.00 63.51 65.96 67.08 66.90
54.62 55.58 56.32 57.01 59.13 63.00 63.17 64.46 66.73 64.79 64.08 64.78 65.75 64.69 64.98 64.12 61.54 46.39 47.80 48.02 51.21 64.13 63.47 50.65 43.94 42.78 43.50 47.94 44.01 44.23 46.32 62.96 62.74 60.64 60.62 62.10 61.97 65.89 65.05 65.59 65.90 65.60 65.52
53.97 54.73 55.39 56.70 61.03 63.61 64.01 65.92 63.76 63.91 65.83 65.00 64.23 64.09 63.52 62.88 62.32 63.59 62.11 60.56 51.83 56.86 52.57 58.18 55.07 53.29 50.02 55.17 54.91 55.31 60.87 63.48 62.90 60.75 60.50 62.66 63.20 63.03 62.76 63.12 62.79 62.88 62.27
54.51 54.88 56.72 58.83 60.04 62.74 62.44 62.93 66.72 68.04 66.13 66.00 65.39 64.33 63.30 61.61 62.33 58.73 60.33 63.99 64.57 59.03 60.49 61.33 61.47 62.29 61.37 61.24 61.66 62.38 62.40 62.69 62.56 63.10 60.95 60.21 59.84 60.27 60.92 62.77 62.47 62.18 60.86
57.86 58.73 58.27 60.75 60.34 57.58 60.56 54.27 45.30 45.86 47.47 49.51 52.34 60.62 63.04 51.76 44.80 44.05 43.68 45.89 47.26 48.59 61.05 61.68 61.82 61.87 60.12 60.89 61.10 61.21 61.71 58.60 61.95 62.31 61.87 61.60 60.77 59.90 60.05 61.68 61.97 61.44 60.58
54.29 57.79 60.27 59.30 61.11 60.56 60.48 59.91 58.45 50.75 44.92 44.41 46.75 48.55 49.52 45.30 42.60 42.42 43.69 44.59 44.77 48.01 62.09 61.26 61.05 60.87 61.19 61.21 61.07 60.66 60.65 61.84 62.50 61.43 60.63 61.00 59.74 60.34 59.55 60.55 60.53 60.97 60.21
57.21 52.21 61.24 61.23 61.58 61.69 62.45 61.83 61.77 61.08 60.21 58.90 45.48 48.10 42.12 42.05 41.51 41.33 43.14 48.55 58.22 57.08 62.51 61.65 61.45 61.75 62.06 61.59 61.22 60.93 61.16 61.15 61.05 60.93 61.55 61.35 61.30 60.42 59.79 59.71 60.12 60.42 60.03
60.65 62.00 61.71 61.35 63.08 60.96 61.76 61.18 62.68 62.08 60.72 57.56 54.08 47.60 43.59 40.24 41.33 42.78 44.59 61.75 60.97 61.19 61.89 61.99 61.77 61.00 62.01 62.33 62.02 61.44 61.45 60.93 60.29 60.49 60.13 60.44 60.31 59.84 60.02 60.01 59.82 48.59 51.46
61.20 51.27 57.29 62.61 60.48 60.96 62.30 60.91 61.15 61.21 59.90 59.72 58.99 54.54 52.73 53.67 56.71 59.11 61.32 61.56 61.33 61.66 61.89 61.77 62.37 63.00 62.55 62.03 61.76 61.33 60.84 59.94 60.17 60.41 61.04 60.93 60.68 60.58 59.77 60.04 59.96 58.72 59.38
62.03 60.56 55.75 61.70 61.56 61.89 62.18 62.29 61.80 61.24 60.22 59.20 57.53 56.39 46.19 59.19 59.11 60.46 60.42 61.48 61.68 61.63 61.44 60.58 60.81 61.32 61.82 61.60 61.48 60.78 60.15 59.49 60.26 60.47 60.12 60.38 60.99 60.72 60.58 59.18 59.76 60.95 59.98
62.91 62.13 62.44 63.04 63.42 62.87 62.32 61.74 60.53 60.03 59.46 57.77 56.45 52.11 40.42 59.69 59.67 59.62 60.66 58.56 59.68 59.34 61.44 61.90 62.39 62.10 62.83 62.24 61.26 60.85 61.38 61.45 61.49 60.83 61.82 61.54 61.68 61.22 61.51 61.26 59.54 60.81 59.24
62.71 62.20 62.23 62.57 62.31 56.10 60.27 60.32 60.03 58.48 56.91 56.93 56.82 55.80 56.70 55.29 55.85 56.83 57.37 56.72 58.01 59.58 60.45 61.30 61.56 60.78 61.83 62.63 63.02 62.48 61.04 62.22 63.48 63.63 62.67 61.58 61.40 61.73 62.12 61.42 60.25 60.13 57.07
62.73 63.20 61.40 60.23 59.68 59.38 59.66 59.28 57.37 52.70 57.12 56.17 54.18 52.36 51.82 50.80 50.23 51.05 53.37 54.85 56.73 58.21 59.79 59.46 59.60 60.38 59.81 59.89 59.74 59.38 59.89 59.75 62.44 61.98 62.46 60.80 59.61 56.71 58.17 56.84 55.28 53.23 50.60
63.22 61.94 60.20 59.31 59.52 59.42 57.49 57.73 57.19 56.42 54.25 53.28 49.72 48.64 47.76 48.94 49.60 48.68 51.03 53.27 52.56 50.67 52.64 54.74 54.38 53.17 52.37 52.47 52.04 50.15 36.38 35.91 51.65 46.12 56.63 52.43 50.75 50.04 47.20 46.46 46.63 46.58 46.60
61.59 60.58 59.71 58.33 58.80 58.47 57.28 56.52 55.19 53.11 50.98 49.48 47.55 47.01 47.30 47.03 48.21 47.78 45.14 45.29 45.52 44.98 44.98 47.08 45.39 43.37 42.81 42.69 39.45 34.47 34.10 34.78 43.24 37.78 53.96 51.75 51.94 52.35 50.73 48.47 47.31 46.42 45.19

GFSGL_sfc_wetblb_069.txt.gz
Wetbulb
54.02 55.01 55.27 55.91 56.93 58.19 60.52 60.37 60.33 60.36 62.15 63.36 63.40 63.46 64.57 66.78 70.60 69.44 70.48 71.33 70.69 70.98 71.09 70.44 69.64 68.94 68.27 67.96 66.49 64.58 63.41 62.81 59.59 60.95 62.01 62.83 61.87 62.30 62.53 63.02 63.46 62.53 61.27
54.25 54.83 55.87 56.71 57.02 56.90 57.85 60.03 60.26 59.77 60.60 62.27 63.76 64.61 65.69 66.18 68.37 71.80 71.16 71.89 71.42 71.00 71.15 69.64 69.43 69.95 68.23 67.57 65.77 64.32 63.84 63.44 61.65 58.76 60.45 60.87 60.87 61.27 61.48 61.58 63.07 64.91 62.46
51.81 51.00 50.79 53.18 55.33 56.06 57.65 58.69 59.98 60.83 60.58 60.30 61.37 61.68 63.05 66.58 66.58 68.09 70.63 70.86 70.63 71.03 71.11 69.41 68.86 68.90 68.00 67.50 65.87 64.20 64.00 64.06 63.54 59.95 59.36 60.30 60.28 60.97 60.06 60.56 60.82 60.54 61.46
51.54 50.36 49.78 50.10 52.24 55.48 57.26 58.77 59.94 61.77 61.67 61.58 61.96 62.09 62.81 63.94 66.83 67.82 68.19 68.78 69.56 71.05 70.27 69.79 69.27 69.41 69.07 67.39 66.14 64.79 63.52 63.18 61.10 60.11 58.88 58.06 58.70 59.41 59.55 58.32 58.28 58.96 58.00
50.65 49.91 49.54 49.98 50.82 52.54 54.95 57.41 58.39 58.96 59.44 60.48 61.58 62.90 62.83 63.34 65.03 67.08 68.16 68.71 70.60 69.61 69.29 69.93 69.41 68.11 65.00 66.16 66.02 63.51 61.72 61.03 60.10 58.74 57.92 57.56 57.32 57.18 57.32 59.20 57.02 57.54 60.44
49.73 49.63 50.58 50.70 51.52 51.61 53.37 55.77 56.44 56.98 58.30 60.25 61.02 62.21 62.50 63.14 57.29 55.78 63.73 68.01 70.30 67.96 68.60 69.09 67.60 63.26 62.97 60.56 61.19 60.23 61.69 62.55 59.35 59.06 57.62 56.56 56.64 57.50 58.24 58.36 57.86 55.95 55.45
49.04 50.27 51.06 50.98 51.57 51.68 52.70 55.26 54.67 55.11 57.14 58.91 60.22 61.06 61.54 62.53 54.35 53.75 53.46 68.94 68.47 68.63 67.78 66.18 65.62 65.21 61.95 61.38 56.48 57.86 56.70 54.94 58.80 60.32 58.43 57.79 57.78 58.68 59.32 58.16 57.62 57.82 56.32
48.92 49.79 50.75 51.10 51.36 51.33 51.25 51.35 52.81 53.11 54.14 55.80 57.87 59.57 61.56 63.30 54.22 52.11 52.37 65.76 68.08 66.63 65.96 66.50 64.63 62.08 61.55 60.65 60.32 60.03 59.62 59.34 59.10 61.78 60.28 59.65 60.15 60.40 60.23 60.61 58.79 58.15 59.83
48.82 49.43 50.28 50.31 49.64 50.60 50.57 50.35 50.84 53.05 54.92 56.25 58.71 60.49 61.32 62.59 51.50 49.74 51.89 64.63 66.21 65.48 66.61 66.10 64.67 63.65 53.94 52.86 61.15 59.75 58.28 56.70 51.75 51.90 52.98 51.14 49.51 51.50 58.13 61.44 58.51 58.16 56.05
48.63 49.41 50.28 50.27 49.95 49.59 50.16 50.76 50.82 53.85 55.56 57.14 58.43 59.45 58.12 61.89 53.44 48.92 51.88 66.07 64.02 63.56 61.41 61.81 55.27 60.49 48.20 50.59 61.57 60.17 57.86 56.72 57.50 57.04 56.90 54.36 54.18 54.72 51.32 60.68 59.87 58.10 55.96
49.39 50.07 50.49 50.39 50.05 50.22 50.09 50.01 50.59 52.27 54.60 56.17 57.98 59.03 60.82 61.23 62.62 46.42 48.78 65.58 64.23 62.87 61.63 59.77 55.68 46.77 44.97 48.56 52.93 60.27 58.16 58.00 55.03 57.66 57.32 57.92 59.67 59.36 59.75 60.09 59.84 59.08 58.08
49.34 49.96 49.66 49.76 50.41 51.78 50.27 50.37 50.87 53.65 53.66 54.80 56.26 57.87 60.45 62.17 52.75 47.51 47.51 56.13 58.58 62.79 61.56 59.18 51.35 44.43 46.61 45.34 52.04 44.25 44.97 53.80 58.16 57.70 57.90 59.01 58.35 57.52 58.44 58.84 60.87 60.29 61.60
48.80 49.15 49.26 49.97 51.04 51.80 50.90 51.25 51.54 53.26 53.72 55.40 56.60 57.45 59.14 58.59 55.69 47.15 48.42 51.70 53.16 61.12 60.66 53.03 43.31 42.80 43.16 44.94 42.78 43.34 49.32 58.32 57.82 58.43 56.42 56.92 58.82 59.44 58.25 57.74 58.62 60.29 61.64
47.29 48.43 49.39 49.79 50.46 51.21 52.02 52.56 52.11 53.40 54.31 55.56 55.96 57.41 59.28 57.82 55.85 54.15 54.94 53.49 49.81 51.07 48.27 48.54 49.83 50.59 50.74 49.00 51.21 53.09 58.38 58.54 58.54 58.44 56.48 59.37 60.11 58.30 57.72 58.08 57.40 57.76 56.70
46.96 48.00 49.98 49.98 50.22 50.61 51.66 52.12 53.58 54.23 54.81 55.64 57.72 59.64 60.88 58.04 57.55 55.82 57.07 58.56 58.07 54.79 54.85 56.26 56.82 56.34 55.51 55.27 55.45 56.36 57.30 58.92 57.74 57.52 56.18 56.74 57.78 57.42 57.73 57.56 57.38 57.12 55.44
46.91 47.99 48.77 49.29 49.95 51.52 51.29 51.01 42.80 43.52 44.94 45.68 48.34 56.62 60.97 53.69 48.78 48.24 48.42 47.33 47.69 48.76 56.83 57.02 56.62 56.36 55.98 55.63 55.47 56.02 56.68 56.66 58.68 58.20 57.64 57.08 58.06 57.28 56.22 58.04 57.35 57.94 55.08
46.74 48.29 49.97 49.71 52.02 52.32 51.56 52.23 52.96 46.93 43.16 43.70 45.52 46.61 50.59 49.67 45.52 46.42 47.33 47.15 46.04 51.38 57.58 57.38 57.20 56.86 56.74 56.60 56.80 56.86 56.42 59.02 60.13 59.79 58.62 58.52 58.34 57.96 54.74 57.57 56.29 57.72 55.46
48.80 45.72 50.76 52.21 52.66 53.02 53.49 54.57 55.02 54.45 54.59 52.60 46.39 49.12 43.52 44.43 45.34 45.70 44.79 48.36 56.06 55.88 58.59 58.05 57.32 56.10 56.48 56.75 56.44 56.50 56.89 57.93 58.32 58.02 57.93 58.06 56.20 57.66 57.26 56.50 56.50 56.92 55.13
49.51 51.81 52.28 53.80 55.22 55.14 56.50 57.03 57.39 57.22 53.83 50.42 50.09 46.50 44.49 43.52 44.25 44.97 47.51 57.78 57.45 57.53 59.04 59.44 57.69 57.11 57.03 58.05 57.18 56.85 56.93 57.15 56.10 56.65 57.98 58.14 58.24 57.82 54.97 55.12 54.80 47.86 49.61
55.00 50.01 52.10 55.78 56.88 57.61 58.27 57.48 55.48 54.40 54.36 54.36 53.33 50.59 50.76 54.02 56.92 55.72 57.20 57.51 58.07 57.42 59.30 58.75 57.37 58.09 58.79 57.85 57.32 56.95 55.76 55.78 57.17 57.88 57.88 58.17 57.60 57.87 56.88 57.12 55.24 54.15 55.48
55.64 57.22 51.30 58.03 57.50 58.42 57.87 58.03 57.19 56.69 55.68 54.85 54.86 53.74 45.14 57.31 56.12 56.77 57.04 57.27 57.94 59.05 59.71 58.76 57.69 58.21 59.34 58.26 57.44 56.57 56.68 57.58 58.08 58.49 58.45 58.21 58.03 57.14 55.78 57.07 57.36 56.58 57.08
59.55 57.44 57.73 56.85 58.12 58.98 58.92 57.83 56.28 56.08 56.18 55.70 54.14 46.61 42.43 57.66 57.46 57.38 57.86 57.84 58.06 58.28 58.64 58.19 58.91 59.30 58.81 57.19 57.55 56.91 56.34 57.61 57.73 57.80 58.00 58.14 57.58 57.60 57.74 57.77 55.60 55.82 53.69
60.73 59.90 59.32 59.02 58.57 53.39 56.57 56.60 56.07 56.30 56.19 55.76 54.82 56.52 57.26 57.30 57.26 57.45 57.04 56.40 57.39 57.34 58.93 59.64 59.61 58.70 58.11 56.52 56.38 58.27 58.92 57.37 58.26 58.36 57.39 57.10 58.23 57.21 54.32 51.62 49.36 46.83 46.95
60.23 59.55 58.41 57.55 57.13 56.39 55.83 55.47 55.07 51.41 55.10 55.00 54.67 54.73 54.87 55.09 54.55 54.98 54.48 54.06 53.37 51.78 51.61 51.49 52.10 52.82 51.74 51.02 49.62 49.60 53.88 55.28 57.68 57.30 55.20 52.74 50.58 48.34 47.90 46.69 46.01 45.36 44.75
59.60 58.05 56.90 55.81 55.47 55.02 54.36 53.55 53.48 52.77 52.29 51.61 51.67 51.38 50.99 50.15 49.49 49.72 49.62 48.41 47.13 45.33 44.99 44.38 43.64 42.67 43.16 43.70 44.60 44.20 38.67 38.74 46.75 43.07 50.41 48.97 47.01 45.77 44.65 43.46 42.37 41.62 40.91
57.06 56.36 55.54 55.14 54.55 53.36 51.62 51.16 50.59 50.38 49.90 49.28 48.88 47.86 47.36 45.99 44.54 44.25 43.74 42.48 40.87 39.93 39.56 39.46 38.45 38.32 38.25 37.85 39.07 35.44 34.97 35.62 39.32 37.14 46.39 46.16 45.00 43.75 41.63 40.16 39.57 38.83 38.56

GFSGL_sfc_wetblb_072.txt.gz
Wetbulb
50.26 50.56 50.74 52.43 54.28 55.27 57.01 58.43 57.54 57.84 58.84 60.23 61.07 61.98 63.23 63.80 65.19 66.61 66.81 66.39 65.36 64.15 66.21 66.75 66.92 68.02 69.42 69.47 67.80 64.91 62.96 60.61 58.96 59.39 60.80 61.29 60.45 61.27 61.73 61.85 62.73 61.89 61.15
51.24 51.72 52.53 53.39 54.17 53.88 54.29 55.24 58.24 58.59 59.18 59.22 60.38 61.26 62.01 63.34 63.65 66.06 67.08 66.12 64.97 64.10 65.93 68.11 68.62 70.35 68.82 69.58 66.62 64.84 62.52 61.85 60.32 58.25 59.60 60.36 60.30 60.30 60.27 60.33 62.09 64.00 61.68
52.21 52.37 51.06 51.27 51.45 51.61 52.68 54.27 55.78 58.18 58.87 58.47 59.39 59.48 60.26 60.38 61.42 63.58 65.16 67.19 69.46 69.17 69.23 69.36 69.68 69.62 69.49 67.82 66.13 64.37 62.88 62.72 62.02 59.32 59.22 60.26 59.32 59.62 58.89 59.01 59.29 59.28 60.56
48.97 48.29 48.10 48.12 48.96 49.93 50.94 52.30 54.46 56.63 57.99 59.41 59.52 60.23 60.80 60.83 61.49 62.11 62.85 65.32 67.32 69.46 70.14 70.37 70.55 69.73 68.99 67.06 65.90 65.30 62.95 61.63 60.91 60.71 59.58 57.28 57.98 58.28 58.10 56.83 56.43 57.46 56.83
49.59 48.77 48.36 48.46 48.73 48.68 48.83 49.55 51.44 53.90 55.56 57.70 59.39 58.63 59.17 60.89 62.09 61.47 61.35 61.96 65.38 66.67 67.91 69.09 69.84 68.58 65.00 64.78 65.97 63.76 61.77 59.92 59.97 59.56 57.08 56.19 56.43 56.33 56.37 56.71 56.07 56.33 57.06
48.43 48.41 49.32 49.28 49.66 49.23 49.08 49.34 49.40 50.61 52.53 53.25 54.52 57.74 57.13 59.59 54.86 53.08 55.55 60.34 63.83 66.34 67.25 69.13 69.48 62.44 62.86 58.69 58.93 59.30 61.12 60.84 58.78 57.72 56.81 55.93 55.47 55.97 56.35 56.75 55.45 55.03 55.81
48.16 49.14 49.94 49.67 49.75 49.31 50.02 49.87 49.35 49.45 52.57 54.15 55.76 56.92 57.50 58.51 52.60 50.79 52.33 58.19 60.02 64.46 67.17 68.25 65.95 68.10 63.20 63.81 56.31 56.29 56.01 54.46 57.71 59.75 57.73 56.93 56.15 57.31 57.20 55.99 55.75 55.47 55.07
47.84 48.47 49.56 49.50 49.59 49.42 49.02 49.45 49.53 48.87 49.99 52.19 54.29 56.00 55.74 56.56 50.44 49.29 51.10 58.39 60.25 63.13 66.43 66.86 65.48 62.81 63.02 62.40 61.66 60.45 59.55 59.32 58.96 60.92 59.78 59.16 58.50 58.99 59.50 58.91 57.52 56.29 57.24
48.37 48.40 49.12 49.16 48.86 48.76 48.70 49.01 49.20 48.21 49.85 50.20 52.35 52.67 53.54 55.80 51.40 49.83 51.66 59.56 60.49 62.85 66.19 65.89 65.11 63.08 53.05 51.98 61.01 59.30 57.82 56.69 51.09 49.97 50.49 49.08 48.72 49.26 55.37 58.76 56.71 57.08 56.09
48.07 48.44 48.70 48.65 48.45 48.05 48.53 48.29 49.08 48.54 49.49 51.17 53.92 55.88 55.00 57.03 52.04 46.72 50.11 58.55 60.69 63.14 62.62 62.94 53.79 60.49 48.54 49.80 60.73 59.03 56.63 56.19 56.71 56.29 57.40 55.37 53.25 53.03 50.71 58.87 59.99 57.74 55.35
48.77 49.34 48.95 48.73 48.44 48.73 48.72 48.36 48.34 48.77 49.06 49.60 52.39 54.39 56.05 56.37 56.93 48.70 46.90 56.92 61.58 62.62 60.81 62.14 61.46 47.81 46.36 47.81 52.32 59.93 57.36 56.13 53.92 56.23 55.97 56.11 56.63 56.86 58.42 58.12 58.86 58.36 56.23
48.39 48.51 47.95 47.98 48.70 49.60 48.33 48.09 48.33 48.76 47.14 49.32 51.52 53.30 55.19 56.21 51.68 50.32 46.90 46.00 54.66 63.15 61.85 62.03 56.45 44.73 45.64 45.27 51.98 45.09 44.91 52.29 57.54 56.17 55.51 55.73 56.55 57.84 58.34 58.10 59.16 60.14 60.54
47.70 46.43 46.92 48.05 48.90 49.09 48.14 48.07 48.04 48.31 48.30 48.66 50.70 52.27 52.81 55.26 56.73 48.17 46.00 44.37 45.45 59.79 60.58 55.04 46.72 44.91 45.27 46.16 42.55 42.37 48.17 57.70 56.55 56.61 56.25 56.25 58.56 58.26 57.42 56.63 57.53 58.30 60.42
46.21 46.57 46.94 47.63 47.83 48.57 50.41 50.12 49.49 49.40 50.42 51.49 52.42 53.13 53.41 54.75 57.10 56.90 54.46 51.83 48.86 53.13 49.98 50.36 51.32 51.07 48.90 48.05 50.12 53.05 57.34 57.14 57.32 57.18 55.55 56.17 56.90 56.29 56.15 56.21 55.59 56.37 57.29
46.23 46.55 46.69 47.73 48.44 48.76 49.65 49.78 50.37 51.46 51.35 51.71 53.11 53.49 53.57 54.75 57.07 53.28 54.02 58.08 58.50 55.21 53.54 56.23 57.26 56.29 55.61 54.58 54.46 56.05 56.86 56.88 56.63 55.77 55.23 55.69 55.79 55.77 55.63 56.19 55.65 55.23 54.32
44.76 46.45 46.73 47.25 48.66 48.85 48.91 49.21 43.82 44.10 44.17 43.07 43.82 50.14 55.95 50.07 47.09 45.82 45.27 45.27 47.09 47.99 57.13 56.94 56.35 56.49 55.27 54.30 54.66 54.46 55.43 54.60 55.71 56.13 55.41 55.93 57.43 56.99 57.27 57.33 55.54 56.13 56.41
45.19 45.99 46.77 47.17 48.74 48.33 48.26 48.78 48.39 45.22 42.92 46.18 43.64 41.65 41.83 46.51 44.00 43.64 43.46 45.82 45.64 50.50 56.97 56.43 55.95 55.25 54.85 55.01 55.19 54.73 54.77 56.01 57.17 56.41 56.03 57.77 57.98 57.54 55.54 56.94 56.72 55.46 53.86
45.70 43.75 47.02 49.32 49.46 49.99 50.12 50.02 50.27 49.79 49.15 50.12 45.04 43.81 42.19 42.92 42.19 43.28 45.09 48.43 55.95 54.48 56.89 56.05 55.61 55.59 55.93 55.99 55.83 55.11 55.23 56.49 56.92 57.64 57.81 58.23 56.33 56.19 54.54 55.44 55.08 56.03 54.51
45.23 46.83 47.29 49.02 51.22 50.59 51.13 51.09 51.59 51.69 51.72 52.05 49.64 45.06 44.39 43.28 43.82 43.64 46.00 58.23 56.73 56.45 56.57 56.51 56.43 56.45 56.45 55.75 55.49 55.45 55.74 55.94 55.45 55.87 56.75 56.04 55.27 56.10 55.46 54.34 53.42 46.18 48.70
47.54 44.48 46.87 50.79 51.63 53.40 53.20 53.44 53.84 54.68 52.94 52.20 53.08 50.41 48.98 49.96 53.87 56.49 56.87 57.51 57.27 57.39 57.59 56.99 56.27 56.55 56.63 56.53 55.97 55.74 54.59 54.27 55.04 56.91 57.42 57.45 57.27 57.32 55.97 55.60 55.40 54.56 53.58
49.58 49.68 46.57 52.14 52.78 54.05 54.88 55.60 55.23 54.29 54.37 54.75 52.74 50.92 45.09 57.96 57.17 57.09 56.85 57.13 57.37 58.29 58.69 58.17 57.15 57.59 58.18 56.86 56.23 55.40 55.30 55.40 56.15 56.79 57.74 57.34 57.41 56.83 57.01 56.93 56.23 54.98 54.03
56.25 57.15 55.10 56.00 57.11 57.33 57.09 56.59 56.25 55.92 55.48 54.57 54.01 48.63 40.56 58.09 56.99 56.27 55.97 56.05 56.71 59.39 59.42 57.68 57.33 58.06 57.25 56.98 56.19 55.82 56.07 57.55 57.80 58.17 58.02 57.90 57.38 56.23 56.91 56.49 54.21 53.31 53.73
55.66 56.37 54.54 55.67 57.25 52.42 56.17 56.65 56.45 56.35 56.00 55.82 56.65 57.13 57.41 56.90 56.11 55.79 55.91 56.41 57.32 58.55 58.22 58.24 57.06 55.95 55.63 55.60 55.50 55.64 55.30 55.36 55.86 56.95 57.07 56.43 55.19 53.06 52.22 52.02 50.82 49.44 50.74
58.52 58.00 57.41 56.93 56.74 56.49 56.25 56.23 55.54 51.25 56.39 56.99 57.17 56.53 55.72 54.25 53.35 53.53 52.92 52.21 50.62 49.43 50.65 52.13 53.27 52.29 51.18 50.39 51.18 52.85 54.41 56.55 56.41 55.82 54.23 51.56 49.41 47.14 46.43 45.87 45.87 45.00 43.25
57.29 56.69 56.09 55.50 55.36 55.34 55.30 55.04 54.25 53.84 54.17 53.76 52.68 51.46 50.18 50.30 48.86 47.75 47.10 46.34 45.51 44.43 43.20 44.83 46.09 45.80 46.90 47.60 46.99 45.09 38.61 39.15 48.01 43.78 48.94 47.36 45.18 44.06 42.76 41.99 41.45 40.50 38.55
56.03 55.60 55.02 54.37 53.76 53.46 52.90 51.76 51.25 50.98 50.37 49.65 48.52 47.47 46.32 45.45 44.28 43.31 42.72 42.30 41.36 40.66 39.62 39.25 40.09 39.77 40.28 39.50 37.96 34.97 35.30 35.96 40.13 38.42 46.23 44.82 43.00 41.49 40.54 39.02 37.28 35.47 34.81

GFSGL_sfc_wetblb_075.txt.gz
Wetbulb
50.87 51.93 53.06 53.34 53.40 54.97 55.22 54.79 54.80 55.15 55.43 56.76 58.17 59.04 59.68 60.58 61.75 62.94 64.48 65.32 65.31 65.80 64.96 63.83 63.85 65.25 64.67 66.53 68.09 66.52 66.00 64.62 62.93 63.73 59.99 60.75 60.47 60.52 61.56 61.71 62.19 61.43 60.61
49.61 49.25 49.38 49.33 50.44 51.01 51.80 52.85 53.77 55.02 56.43 57.56 58.28 59.17 59.91 60.34 60.23 60.36 61.48 63.79 64.93 64.25 64.69 64.53 64.78 65.63 65.27 66.36 67.32 67.23 65.12 63.11 62.93 61.11 59.50 60.05 59.30 58.90 59.92 60.35 61.30 63.03 60.99
48.97 48.80 49.03 49.90 50.72 51.41 51.74 51.22 52.64 53.88 54.93 56.55 57.91 58.08 58.51 59.40 59.13 59.61 61.14 61.93 62.50 64.17 66.60 67.32 66.47 66.76 67.05 68.47 68.65 66.89 64.80 63.54 61.98 59.55 58.72 59.03 58.46 58.42 58.82 58.62 58.46 58.66 61.03
48.42 48.38 48.79 48.96 49.56 49.12 49.73 50.29 50.97 52.32 53.32 54.41 56.13 57.87 59.17 59.60 59.69 59.81 59.60 60.03 61.78 63.31 64.99 66.21 68.56 68.66 68.24 68.06 68.11 66.26 62.81 62.25 61.32 59.57 58.06 57.64 57.72 57.62 57.60 56.72 56.13 56.56 56.74
48.21 47.54 47.56 47.49 47.82 48.24 48.33 48.67 49.45 49.94 50.65 51.49 52.08 53.33 56.43 58.47 58.77 58.37 58.84 58.78 59.08 60.09 62.41 65.28 66.84 66.89 64.51 65.86 68.24 66.37 62.97 61.52 59.01 57.82 56.66 55.83 56.11 56.01 56.76 55.79 55.25 55.11 55.69
48.42 47.91 48.71 48.45 48.29 48.04 47.93 47.84 47.63 48.01 48.30 48.96 49.71 50.18 50.17 52.51 49.89 51.38 54.77 57.20 58.14 58.70 59.31 62.15 65.21 63.76 63.99 58.23 58.04 58.77 61.96 61.76 60.21 58.82 56.50 56.20 55.79 56.18 55.43 55.79 54.33 53.92 55.23
47.19 48.01 49.04 49.01 48.94 48.69 48.45 47.97 47.43 46.82 47.00 47.64 48.89 50.61 51.75 53.23 49.58 48.47 50.96 55.80 56.47 56.75 58.29 60.18 62.62 65.47 62.90 67.37 58.35 54.96 55.31 55.47 57.64 60.99 57.66 57.18 56.16 56.74 56.52 54.71 54.25 54.39 54.73
47.75 48.60 49.19 49.15 49.11 48.31 47.74 47.31 46.69 46.33 46.40 46.94 48.63 49.80 51.07 53.84 49.85 47.98 48.86 53.22 54.73 57.12 58.78 60.17 61.75 63.81 65.54 65.47 63.91 61.56 61.06 59.81 59.22 60.66 60.00 58.69 58.68 58.02 58.17 57.41 56.50 56.40 56.40
46.00 47.87 48.36 48.51 48.43 48.06 47.73 46.98 46.55 45.59 45.70 46.42 48.70 49.36 50.27 51.67 48.08 46.57 47.70 55.22 57.37 58.45 59.88 61.38 63.36 64.84 56.47 48.80 61.62 60.49 59.15 57.74 52.79 49.32 51.30 49.34 47.89 48.44 54.72 58.12 55.43 55.89 55.63
44.57 46.03 48.21 49.25 48.70 48.19 48.25 47.67 46.94 45.64 47.34 48.37 48.57 49.01 50.10 52.23 49.43 45.36 47.13 56.12 56.06 57.62 59.21 61.45 54.06 58.49 47.35 47.71 61.43 59.94 57.90 57.12 57.36 57.06 56.80 53.29 52.57 50.57 49.52 58.29 57.56 57.08 56.66
45.16 45.90 46.63 48.23 48.70 48.90 48.12 46.98 46.38 45.90 46.85 46.93 47.48 48.30 50.14 52.35 53.71 45.70 43.97 54.01 55.76 56.72 58.65 61.27 62.26 46.08 45.90 46.44 52.79 60.72 58.26 56.60 53.86 56.06 55.53 55.75 56.15 57.68 58.26 58.18 57.72 58.40 56.94
45.75 45.56 46.13 47.18 48.16 48.56 46.07 46.47 45.52 45.45 45.46 45.98 45.96 46.99 49.77 52.12 47.89 48.56 44.09 44.63 49.91 55.25 57.27 60.79 60.81 46.08 46.44 45.54 52.24 48.62 45.54 51.66 55.63 54.59 54.32 56.31 54.70 56.35 56.88 58.79 57.82 57.70 59.21
45.09 45.16 45.09 46.31 47.34 47.94 46.88 45.48 45.33 45.99 46.26 45.96 46.49 47.30 48.73 52.15 53.74 46.08 44.63 48.07 45.36 51.02 56.23 57.34 48.07 45.54 43.36 48.07 45.54 45.36 47.89 56.90 55.51 56.58 56.23 56.72 55.21 56.50 56.94 57.52 56.96 57.30 58.72
44.00 44.61 45.74 46.71 46.91 47.51 47.23 47.40 46.90 46.73 46.72 47.17 47.43 47.45 48.33 50.37 52.04 53.58 54.62 54.77 46.77 48.87 48.93 49.03 49.09 50.94 48.98 48.96 49.39 52.11 57.62 57.00 56.37 56.52 55.31 54.42 57.16 56.98 54.75 54.95 54.51 55.33 55.82
44.50 45.25 45.93 47.04 46.78 46.99 47.87 47.90 48.11 48.70 47.93 48.34 49.52 50.54 50.71 50.99 52.91 51.84 51.93 55.59 56.25 52.80 52.98 54.11 57.02 57.14 56.09 56.09 57.16 56.84 55.77 56.29 55.63 54.79 54.83 55.25 54.81 54.77 54.27 54.79 54.51 54.21 53.52
43.22 44.25 44.80 45.96 46.77 47.88 48.11 48.15 41.91 44.63 43.90 42.80 43.56 48.12 52.82 47.78 44.94 43.00 42.64 43.00 45.36 44.63 56.01 57.84 57.60 57.40 56.44 56.50 56.94 56.76 54.88 53.66 55.29 55.07 55.15 55.27 55.09 54.69 55.19 54.81 54.45 54.10 53.32
43.18 44.50 45.93 46.23 47.16 47.53 47.72 47.33 46.74 45.07 43.16 43.84 41.37 41.55 40.28 46.06 41.55 41.16 41.19 41.35 41.91 44.63 58.08 57.80 57.26 56.98 55.95 55.73 56.03 56.72 54.66 54.83 54.97 55.21 55.03 55.15 56.16 57.44 55.76 56.75 55.86 54.36 55.10
44.24 43.07 46.38 46.92 46.93 47.46 48.89 48.92 48.55 47.51 47.78 48.00 43.33 42.90 41.02 39.65 39.36 40.63 40.28 42.62 48.09 48.83 57.90 57.26 56.64 55.43 54.69 54.81 54.95 54.13 54.37 55.33 55.21 55.03 55.09 57.42 57.41 56.36 55.76 56.10 55.90 55.46 54.63
44.81 45.85 45.60 46.63 48.47 48.22 49.44 48.14 48.71 49.05 49.14 48.31 49.57 43.51 42.90 39.92 39.72 40.08 41.37 55.92 56.44 57.02 56.84 56.16 55.76 55.58 55.40 55.40 55.30 54.83 55.13 55.35 55.25 55.01 55.33 56.92 55.60 54.80 53.58 55.30 53.70 45.17 49.55
45.04 42.99 43.93 46.30 48.32 50.11 50.40 50.27 49.46 49.66 49.88 51.12 50.68 50.68 46.21 45.07 46.84 48.09 53.91 58.10 57.40 57.00 56.58 55.58 55.78 56.06 55.84 56.06 55.35 54.85 53.95 53.28 54.29 54.91 55.19 54.67 54.41 55.92 53.30 52.55 52.21 51.74 51.43
46.23 47.27 44.60 49.05 48.75 50.23 51.85 51.62 51.04 50.95 52.28 52.62 51.85 48.76 41.19 52.41 52.63 56.08 57.18 57.50 57.26 57.16 56.26 55.74 55.92 56.18 55.96 55.66 55.31 54.95 54.34 54.09 54.37 57.09 57.21 56.95 57.07 56.22 56.42 56.22 55.46 54.68 54.70
48.36 48.68 48.25 48.19 51.89 51.70 52.71 54.72 54.94 54.42 54.45 52.40 51.42 48.87 38.83 57.46 57.66 57.52 56.88 57.08 57.76 57.36 57.01 56.85 56.62 56.42 56.50 56.06 55.56 55.06 55.08 56.47 56.97 57.53 57.33 57.23 56.71 56.38 56.42 56.04 54.59 53.45 52.97
51.24 51.33 52.65 50.32 51.37 50.49 54.02 55.72 55.56 54.63 54.16 54.17 54.41 54.02 57.06 57.16 56.66 56.62 56.52 56.39 56.94 56.60 56.54 56.54 55.86 54.93 55.51 55.10 54.92 55.32 55.58 57.45 58.05 58.43 57.75 56.67 55.88 55.41 54.80 52.79 51.92 51.79 49.67
55.66 56.47 56.74 56.58 56.51 55.70 55.28 55.60 55.22 50.86 55.14 55.82 56.42 56.31 56.07 55.19 53.56 52.38 51.87 52.62 52.95 52.74 54.52 55.03 55.16 54.08 53.29 53.03 53.98 54.46 54.84 56.40 56.91 57.33 56.15 52.66 47.70 45.58 47.69 46.90 44.91 42.93 40.49
56.59 56.52 56.43 56.06 55.24 55.24 55.24 55.42 55.19 54.61 53.81 53.49 52.62 51.56 50.39 48.95 47.39 46.90 47.64 47.56 48.56 48.52 48.33 49.63 50.99 50.89 50.31 50.15 49.59 48.96 41.19 39.83 48.42 43.06 47.83 46.63 44.56 43.81 42.67 41.41 39.96 38.82 37.83
54.80 54.80 54.67 54.74 54.01 53.30 53.16 52.49 51.73 51.29 50.55 50.04 48.55 47.12 45.61 44.54 44.05 44.46 44.50 45.28 45.15 43.71 44.04 44.65 43.12 42.93 42.45 41.82 40.74 36.64 36.37 36.76 40.55 38.03 45.03 43.83 41.89 40.07 38.96 37.46 35.36 34.38 33.16

GFSGL_sfc_wetblb_078.txt.gz
Wetbulb
51.18 52.16 53.18 53.42 54.34 54.75 55.13 55.73 55.95 56.67 57.09 57.79 58.74 59.62 60.46 61.60 63.38 63.58 63.71 64.30 64.87 65.45 66.43 65.58 64.46 63.77 63.61 64.55 67.30 67.50 66.49 65.69 63.16 65.02 65.39 64.76 63.83 63.99 65.07 64.94 65.30 65.32 64.57
49.35 51.58 52.68 53.72 53.73 54.23 55.15 55.71 55.83 56.13 57.17 58.08 59.06 59.88 60.61 60.96 60.84 60.89 61.45 63.07 63.55 64.12 65.52 65.61 65.30 65.36 64.72 65.05 65.57 66.01 67.26 65.58 64.95 63.73 64.92 63.31 62.96 63.04 63.51 63.71 64.18 64.99 64.70
49.11 49.16 49.64 50.36 50.37 51.24 52.04 53.26 54.16 55.05 56.35 57.77 58.70 59.20 59.62 59.97 60.33 60.70 61.00 61.48 61.63 62.24 63.16 64.70 65.96 67.05 65.53 65.07 66.76 66.49 66.01 66.58 64.79 64.40 64.04 62.66 62.06 62.31 62.08 62.40 62.79 62.80 62.04
49.41 49.31 49.38 49.35 49.97 50.87 52.15 52.78 53.36 54.47 54.64 55.63 57.11 57.70 58.60 58.92 59.59 60.48 61.07 60.80 60.68 61.48 63.14 63.93 64.56 65.27 66.16 66.86 67.93 68.76 67.93 65.53 64.09 63.18 62.37 61.78 61.30 61.60 61.70 61.19 60.97 61.39 61.52
48.77 48.41 49.18 50.70 50.63 50.73 50.91 51.26 52.15 52.37 52.82 53.35 53.53 54.37 55.91 57.15 57.35 58.06 59.02 59.28 59.44 59.94 61.19 62.37 63.72 63.80 61.72 62.94 66.72 67.91 68.16 65.71 63.91 61.73 60.68 60.31 59.95 60.41 60.89 60.69 61.05 60.73 60.82
48.03 48.01 49.47 49.31 49.70 49.84 50.31 50.20 49.99 50.29 50.69 51.13 51.37 52.06 52.20 52.52 48.28 48.20 51.03 55.01 57.39 59.14 59.63 60.56 61.37 60.18 61.24 57.39 56.51 57.05 62.65 66.33 63.24 61.78 60.72 59.82 59.75 60.41 59.80 60.43 59.98 59.22 58.99
47.25 48.17 49.14 49.64 49.50 49.55 50.09 49.72 48.89 48.71 49.10 49.24 50.18 51.26 52.04 52.99 47.83 46.85 48.44 53.84 55.31 57.71 58.87 58.53 59.21 61.04 60.13 64.19 60.33 55.76 54.27 53.61 56.69 63.18 60.74 59.66 59.33 61.09 60.56 59.43 59.40 60.00 60.15
46.03 46.77 48.23 48.78 49.05 49.40 49.14 49.00 48.81 48.59 48.32 48.69 49.69 50.92 51.54 52.29 46.90 45.77 47.13 54.25 56.49 57.34 57.78 58.74 60.01 60.98 62.13 62.39 64.99 65.70 62.19 60.77 61.11 62.27 62.71 61.99 62.50 62.18 63.05 62.61 61.60 60.81 60.63
44.91 45.38 46.42 47.71 48.46 49.09 48.48 48.74 48.36 47.98 47.99 48.75 50.14 50.46 50.43 51.23 46.33 45.70 47.38 53.69 54.66 56.27 59.50 61.16 61.42 61.99 55.36 48.71 61.47 63.71 61.39 60.11 52.12 50.34 50.71 49.62 47.62 49.08 56.65 61.83 60.02 59.95 57.93
44.70 45.17 46.11 46.71 47.82 48.45 48.89 49.05 48.45 48.83 48.79 49.29 49.22 50.16 49.33 50.95 45.84 44.91 46.99 53.16 55.39 58.11 59.66 60.07 51.03 55.67 50.34 47.26 59.90 61.49 60.03 60.02 58.64 57.45 56.95 54.31 53.02 52.44 49.80 63.50 61.71 59.93 59.36
45.39 45.81 45.93 46.12 46.16 47.65 48.92 49.22 48.31 48.29 49.03 48.11 48.78 49.54 50.29 50.65 51.48 45.34 44.06 52.12 56.43 57.23 57.03 58.08 59.78 48.35 46.90 44.36 46.72 63.09 61.15 58.92 56.07 59.78 59.42 59.32 58.63 58.93 59.78 61.69 62.82 62.58 60.44
45.13 45.03 45.01 45.50 45.94 46.51 46.54 48.51 48.61 47.49 46.91 46.93 47.33 47.88 49.32 50.54 45.64 46.53 44.93 43.53 50.05 55.42 55.86 57.56 58.54 46.90 46.17 42.37 46.90 46.54 46.54 53.01 59.46 58.89 57.99 57.69 58.91 57.97 59.41 61.03 62.06 62.41 63.44
44.14 44.36 44.56 45.33 45.65 46.82 46.59 47.30 46.32 46.45 47.08 46.08 46.28 46.64 47.86 50.23 51.47 43.98 43.44 42.17 43.04 48.98 54.30 52.82 45.43 45.27 43.09 46.36 46.17 43.46 46.90 58.54 58.53 57.77 57.09 57.97 59.79 60.54 61.25 61.02 61.42 62.32 62.67
43.06 43.09 44.14 44.30 44.76 45.94 47.01 47.72 46.63 45.97 46.35 47.01 46.91 47.13 48.28 49.59 51.24 53.10 52.86 52.51 46.74 49.09 50.13 52.10 50.25 49.26 47.26 50.51 50.31 49.91 58.90 59.33 59.41 58.65 57.93 58.75 59.81 59.86 59.52 60.56 60.39 60.88 60.96
42.13 42.26 42.31 44.09 44.37 44.89 46.13 47.44 47.28 48.68 47.61 47.42 48.08 48.69 48.63 48.59 50.21 48.77 49.92 53.53 55.97 53.15 52.64 53.98 53.42 55.08 55.30 56.25 55.95 57.71 58.02 58.57 58.55 58.13 57.77 58.26 59.27 59.06 58.69 59.52 59.44 59.57 58.95
41.20 40.85 43.59 44.34 45.06 46.08 46.58 47.11 42.46 43.98 42.57 42.51 43.13 47.68 50.57 46.00 44.22 42.71 42.19 42.91 42.55 42.19 53.45 54.17 55.11 56.89 56.55 57.01 57.35 56.97 57.45 56.15 58.75 59.31 59.62 59.23 58.62 58.55 58.63 58.72 59.25 59.43 58.37
40.90 43.08 44.87 44.74 45.77 46.53 46.65 46.92 46.02 44.55 40.87 40.70 40.16 40.34 40.74 45.40 41.92 40.95 40.92 39.47 39.29 41.28 55.95 55.83 57.41 57.96 58.13 58.29 58.21 58.03 57.51 58.49 58.88 59.46 59.52 59.36 59.27 59.37 58.05 58.85 58.83 58.91 58.61
42.91 42.36 44.85 45.46 46.44 46.95 47.45 48.00 48.57 48.26 47.42 48.42 43.30 43.50 40.52 40.16 40.74 38.91 39.83 40.70 50.20 44.60 55.15 57.67 58.25 58.90 57.91 57.61 58.05 57.78 57.92 58.13 58.91 58.97 59.30 59.65 59.89 59.25 58.28 57.37 57.13 57.89 56.26
44.60 44.92 46.14 47.31 47.76 47.20 48.47 48.54 48.96 48.43 48.43 48.74 49.09 42.84 42.58 40.01 38.35 38.12 39.43 50.08 52.88 52.53 55.79 57.97 58.40 57.31 57.30 57.72 58.07 58.52 58.83 58.54 58.32 58.82 59.15 59.90 59.69 58.31 56.88 56.96 54.74 47.48 51.08
45.56 42.39 44.49 47.07 47.44 47.71 48.37 48.85 48.92 47.71 48.29 47.54 48.00 49.19 48.95 44.46 46.04 47.46 47.07 50.29 54.85 55.37 57.33 57.19 57.05 57.42 57.89 58.27 58.52 58.64 57.61 56.45 58.32 58.84 59.32 59.51 57.38 57.28 56.91 55.87 55.30 57.38 56.62
45.70 45.96 43.84 46.71 47.66 48.94 48.96 49.68 49.69 49.40 48.46 48.37 49.71 49.87 41.26 48.83 49.86 49.42 49.29 52.33 56.79 57.81 57.31 57.35 57.64 57.77 58.46 58.47 58.40 58.35 58.75 58.93 59.43 59.27 58.92 58.44 58.95 57.06 57.61 58.36 57.78 57.00 56.11
46.51 47.64 47.25 47.41 48.46 48.43 49.41 51.63 51.64 50.88 50.50 51.08 51.57 48.06 37.29 50.20 52.02 51.54 55.71 57.31 58.08 58.30 57.93 58.02 58.44 58.57 58.63 58.77 58.57 58.65 58.69 58.86 59.37 58.69 58.52 58.14 58.13 57.36 57.67 56.83 55.81 55.29 56.20
47.61 47.96 48.29 48.04 48.91 47.30 50.69 52.72 53.68 53.83 53.76 53.08 52.18 50.17 47.37 54.55 55.85 57.19 57.31 58.13 57.69 57.13 57.81 58.93 58.43 58.40 59.10 59.21 59.58 59.75 59.92 59.23 59.09 59.31 58.25 57.58 57.28 56.71 55.85 55.05 54.37 52.48 51.79
48.82 49.64 49.64 50.21 49.51 50.61 52.94 53.78 54.34 49.06 53.59 54.12 55.10 55.77 55.30 55.12 55.28 55.45 56.95 56.73 57.37 57.86 58.41 58.89 58.93 58.46 57.67 58.14 58.55 59.62 59.87 59.28 59.67 59.00 57.76 55.69 52.60 50.52 50.60 48.75 46.07 45.06 40.90
56.89 56.27 55.75 55.23 54.31 54.73 54.63 54.65 54.89 55.09 54.06 52.94 52.81 51.15 51.07 51.98 51.01 51.91 53.33 54.06 53.92 54.78 54.48 55.31 57.56 55.63 55.20 55.51 56.85 54.98 42.40 40.90 51.71 45.28 51.43 50.39 48.44 47.71 45.83 44.16 41.82 39.80 38.47
53.22 53.75 53.75 54.04 53.94 53.86 53.40 52.57 51.83 51.70 51.40 50.44 48.96 48.17 47.73 47.66 48.23 48.65 49.48 50.23 50.33 49.59 49.93 52.28 51.74 50.36 50.94 51.62 50.45 38.92 36.84 37.35 42.14 39.38 48.31 45.71 43.20 42.04 40.57 38.65 38.49 38.67 38.55

GFSGL_sfc_wetblb_084.txt.gz
Wetbulb
63.42 64.94 65.06 64.59 64.82 65.67 65.60 65.79 66.06 67.17 67.04 66.54 67.43 68.40 68.97 69.60 70.89 71.30 71.70 70.69 69.76 70.24 70.51 69.58 68.97 69.77 69.76 68.62 68.04 67.83 66.18 65.99 64.22 65.05 67.77 68.56 68.27 70.42 71.55 72.56 70.31 70.70 67.06
61.00 62.03 62.03 63.25 63.89 64.53 64.25 65.00 65.49 65.84 66.00 65.63 65.78 65.82 66.20 67.19 68.75 68.67 68.43 68.66 68.38 68.00 67.86 66.89 66.12 65.94 67.94 68.84 67.88 68.35 67.46 67.59 66.08 63.97 65.10 65.50 68.04 70.91 70.96 69.48 69.25 69.97 71.02
58.95 60.48 60.84 62.09 63.35 64.24 64.26 64.71 64.85 64.64 64.75 65.06 64.89 64.87 64.85 64.79 65.15 65.28 64.54 64.56 64.88 64.58 64.28 63.63 63.45 63.95 64.82 65.12 66.31 66.23 66.94 67.06 67.11 65.96 62.61 64.91 66.80 69.72 68.52 69.15 69.48 69.32 70.03
57.01 57.68 58.67 61.27 62.52 63.09 64.43 64.79 64.34 63.96 63.33 63.42 63.58 63.31 63.44 63.91 63.87 64.04 63.84 64.15 64.00 63.42 63.18 63.28 62.45 62.51 63.31 64.53 64.67 64.97 65.76 66.03 67.27 66.87 66.70 66.60 67.85 68.52 66.81 65.07 65.32 67.88 67.88
55.39 55.95 56.80 57.78 60.11 62.00 62.90 63.94 63.98 63.67 62.96 62.82 62.67 62.45 62.85 63.24 62.63 62.60 62.36 62.04 62.03 60.92 61.02 60.51 61.77 61.11 58.85 60.31 62.04 63.90 63.92 63.02 63.83 64.34 65.71 67.30 65.62 64.94 63.52 65.93 66.50 67.50 67.47
53.87 53.10 56.02 56.61 57.04 58.19 60.53 62.54 63.54 63.24 62.93 62.18 61.52 61.58 62.54 61.34 49.44 52.43 58.87 60.96 60.59 59.47 59.42 60.33 61.86 59.90 58.87 55.07 55.30 54.69 58.19 62.69 64.47 64.02 64.81 65.26 66.93 66.34 66.21 66.12 65.77 66.55 64.73
53.98 52.61 53.72 54.49 55.75 56.50 57.51 59.21 61.23 63.00 64.40 63.44 62.72 61.96 62.28 62.35 46.96 47.58 49.38 60.29 59.98 60.03 60.39 61.32 61.92 61.43 60.08 63.47 56.41 52.89 53.51 52.05 55.02 65.95 65.81 67.36 67.85 68.97 69.10 66.87 66.42 66.53 66.33
52.83 53.61 53.00 51.25 52.06 53.19 55.87 56.27 58.95 61.10 63.09 64.08 63.77 63.21 62.89 61.51 45.71 45.29 47.65 59.77 60.08 60.16 60.31 60.95 62.17 63.19 63.69 62.63 62.55 63.71 64.73 66.03 66.02 63.73 66.05 67.49 69.59 70.92 69.32 68.61 67.95 68.70 69.62
50.32 52.45 53.53 52.65 52.25 52.00 52.02 53.89 57.43 59.40 60.67 61.46 62.50 62.53 62.35 61.79 45.50 44.61 50.19 58.63 59.10 59.51 59.86 60.10 60.59 61.79 54.60 48.81 63.39 62.33 62.90 64.11 58.32 51.86 51.71 48.96 49.68 50.77 57.79 66.25 65.25 66.61 65.36
47.79 48.99 52.70 53.44 53.36 53.69 56.46 56.10 56.62 58.57 58.86 59.68 60.18 62.12 57.55 61.78 44.49 43.58 49.80 57.33 58.14 57.77 59.81 60.01 50.92 56.88 50.65 43.16 62.72 61.47 60.44 62.11 64.77 66.98 62.47 57.06 58.19 58.79 51.32 67.28 69.23 66.78 64.47
45.64 48.86 47.93 49.22 51.50 54.19 56.71 57.98 58.07 57.04 57.94 59.46 59.96 61.55 60.71 59.95 57.69 43.06 43.74 57.50 56.92 57.02 57.16 57.50 58.98 45.88 44.07 42.80 44.34 60.74 59.78 59.66 60.97 63.81 63.63 64.66 64.10 63.24 64.19 66.18 69.81 69.46 65.03
42.21 43.03 45.66 48.22 50.15 51.75 55.70 56.05 56.43 57.73 57.11 58.16 58.58 58.66 58.69 60.74 50.88 43.70 42.39 44.43 50.91 56.78 56.44 57.29 57.78 42.86 42.93 42.43 46.95 47.58 42.61 46.82 60.62 62.63 62.91 62.01 62.34 63.22 65.13 66.68 68.63 69.15 69.02
41.10 41.55 41.73 44.75 46.51 48.99 50.57 53.48 53.96 56.11 55.36 55.07 54.80 55.76 57.08 58.17 59.20 45.28 42.45 42.09 42.85 53.12 56.63 53.36 43.89 43.65 44.25 47.56 44.73 42.24 42.04 57.57 62.73 62.20 62.71 62.56 63.15 65.35 65.23 65.88 67.29 67.25 66.95
40.27 40.58 41.38 42.91 43.97 44.76 47.15 49.85 50.68 52.57 53.64 54.19 54.90 54.96 55.84 56.96 57.77 58.25 54.69 52.99 44.19 48.63 50.41 54.04 52.37 48.82 43.90 49.76 52.95 55.75 59.88 62.48 63.11 63.22 62.78 64.16 64.56 63.13 63.46 64.82 65.49 66.72 64.38
40.84 41.06 40.89 41.66 43.20 43.99 45.06 45.56 49.09 52.83 53.11 54.24 55.16 55.66 55.56 55.13 56.36 53.56 54.00 56.58 57.28 54.34 53.99 56.82 56.63 57.61 58.22 59.31 60.04 60.43 61.48 62.99 62.84 63.64 62.92 62.24 62.28 62.89 63.36 64.73 65.71 64.95 63.67
40.58 39.55 41.02 41.33 42.22 43.94 44.60 45.23 43.48 43.84 42.97 42.31 42.11 49.45 55.81 48.66 43.92 43.41 44.13 43.76 41.31 41.57 54.55 55.71 55.78 57.17 58.11 58.52 59.19 58.51 60.32 59.01 62.69 62.03 62.28 62.78 61.92 62.01 62.22 63.84 65.32 63.55 62.35
40.22 40.61 40.92 41.65 43.13 42.85 44.47 43.22 44.62 44.75 41.69 41.04 41.62 41.95 43.11 43.76 41.66 41.80 42.15 40.07 38.78 42.72 53.91 54.95 55.82 57.27 58.45 59.03 59.08 58.44 59.30 61.53 63.03 63.32 64.37 63.33 62.22 62.68 61.43 62.88 62.51 62.93 61.79
43.08 40.93 42.92 43.01 44.36 44.78 44.49 45.71 45.78 44.93 47.39 49.39 41.13 44.26 41.00 39.09 39.53 39.43 39.09 41.05 48.10 46.17 54.25 54.74 56.06 57.59 58.69 59.03 58.48 60.69 59.74 61.17 63.26 64.00 64.07 63.57 63.10 63.11 61.97 61.96 61.99 62.18 62.05
43.29 44.63 46.04 45.56 45.91 45.89 46.33 46.69 46.67 46.47 47.17 48.64 50.93 42.93 42.23 38.68 38.51 38.28 39.65 53.27 53.56 54.18 54.95 56.13 56.61 58.54 59.77 59.79 61.87 59.97 61.09 61.09 61.61 64.15 64.08 62.61 63.14 62.97 62.29 62.41 62.35 52.03 55.33
48.88 42.45 44.51 46.86 46.27 46.26 46.06 45.38 45.47 46.83 48.03 48.88 49.13 50.34 51.22 45.94 47.60 47.58 49.58 53.58 55.04 55.79 57.05 56.90 58.45 59.02 59.09 61.47 60.96 60.91 61.66 60.47 64.03 64.05 63.52 64.26 64.08 63.99 63.32 62.89 62.10 61.22 61.65
48.68 49.04 43.43 48.26 48.15 48.94 48.64 48.56 48.70 49.12 49.08 49.36 49.39 50.48 42.82 51.09 51.37 52.29 52.78 53.84 54.73 55.94 57.40 58.06 58.92 58.98 60.11 62.09 60.83 62.88 63.26 63.25 63.92 63.23 63.25 63.51 64.05 63.15 63.23 62.02 60.88 61.82 62.24
48.61 48.80 48.45 48.35 48.80 48.76 49.09 49.78 50.02 50.35 50.66 51.65 51.22 49.21 37.51 52.76 53.08 54.26 54.89 55.35 56.19 57.36 58.37 59.20 59.65 60.11 61.53 60.27 62.29 63.42 63.53 62.69 63.70 63.67 64.27 63.99 64.05 63.16 62.40 62.12 62.34 62.62 60.79
51.18 50.97 50.23 50.26 50.13 46.43 51.01 52.33 51.92 51.73 50.56 51.49 52.10 52.22 51.47 51.33 53.59 55.17 55.94 56.63 57.31 57.93 58.79 60.00 61.29 60.79 60.42 61.09 64.70 65.04 63.59 64.07 64.88 65.06 64.62 63.57 62.39 62.34 63.16 62.47 61.92 60.05 59.50
51.08 52.16 51.49 51.58 52.41 53.36 52.83 53.64 54.23 48.77 54.03 55.14 54.91 53.42 52.66 52.76 52.88 56.20 57.50 57.77 58.65 59.45 60.20 61.46 60.89 60.15 60.96 62.68 64.16 63.54 65.14 65.72 65.35 65.67 65.36 64.08 63.35 60.61 62.58 61.88 60.15 55.82 52.33
48.57 51.14 53.10 53.72 53.78 54.69 54.77 53.87 53.40 54.16 54.33 54.02 53.79 54.89 56.68 55.21 54.81 57.26 58.32 59.22 59.95 60.58 60.03 59.56 60.02 61.28 62.18 63.54 63.67 64.39 51.15 42.30 62.03 54.98 64.64 64.17 62.69 61.74 59.55 55.24 52.85 51.51 50.54
43.37 46.83 49.24 50.97 52.64 53.94 54.28 54.40 53.85 52.17 51.21 50.67 51.07 53.94 54.43 54.87 57.11 58.52 58.63 59.90 58.66 58.53 59.87 60.69 62.08 61.09 62.98 63.39 63.72 45.99 40.44 41.94 55.39 45.55 61.46 57.48 55.32 54.87 52.52 51.35 50.56 50.18 48.12

GFSGL_sfc_wetblb_087.txt.gz
Wetbulb
62.28 63.71 65.51 67.07 68.99 69.40 67.32 65.44 68.21 71.01 71.87 71.70 71.65 71.93 72.50 73.15 74.01 73.20 73.03 71.87 71.28 71.04 71.62 70.57 69.70 70.03 68.71 69.41 70.28 70.17 67.62 66.68 64.19 64.85 67.02 70.37 71.00 70.32 68.99 71.36 72.09 71.81 70.46
60.94 61.78 63.68 64.80 66.29 67.58 66.68 63.31 66.98 68.09 69.27 67.79 68.48 68.12 68.41 68.72 70.90 70.31 69.91 70.18 69.61 69.23 69.93 69.79 69.26 69.66 69.94 70.31 70.59 68.80 66.65 68.80 66.49 65.09 66.64 67.48 68.49 69.56 69.87 70.39 69.64 70.53 70.90
59.23 59.69 59.60 62.83 64.10 65.60 65.43 67.10 66.43 66.73 66.64 65.71 65.30 65.40 65.83 66.17 67.20 68.20 68.28 68.47 68.30 68.64 68.71 68.35 67.69 67.78 67.66 67.39 68.68 67.14 67.01 67.87 67.51 65.66 65.00 67.07 67.34 67.96 68.09 68.59 71.09 70.94 71.56
57.19 58.37 58.98 59.36 62.59 64.26 65.19 64.85 64.76 64.89 64.48 64.40 64.75 64.38 64.14 64.70 65.69 66.19 66.54 67.22 66.65 66.38 66.00 65.00 64.08 63.80 64.76 67.21 66.57 67.97 66.71 65.32 65.25 65.20 65.42 65.58 67.08 69.80 69.15 67.53 66.89 68.30 67.87
55.69 56.11 57.35 59.33 59.53 61.36 63.42 64.39 64.43 64.48 63.97 63.21 63.94 64.26 64.42 64.81 63.75 64.60 65.19 65.45 65.81 64.06 63.49 62.09 62.99 61.57 58.45 59.21 61.47 65.37 66.71 63.16 60.71 61.00 61.98 64.07 64.44 67.07 66.32 67.08 65.98 67.98 68.42
54.73 54.74 56.33 56.61 58.58 58.76 59.66 61.90 64.02 63.72 63.34 63.47 62.01 62.98 64.41 62.33 52.75 54.38 63.13 65.03 63.17 62.19 60.82 60.66 61.31 59.49 58.99 54.56 53.86 53.80 58.00 62.69 62.50 58.61 59.66 61.24 66.26 65.67 67.67 67.48 66.25 66.56 61.30
52.33 54.43 54.88 55.86 55.54 57.50 57.99 58.85 61.49 65.03 66.73 65.41 63.70 63.83 63.77 64.39 48.47 50.08 55.39 64.35 63.74 63.13 62.03 61.91 61.57 60.78 60.05 62.15 55.37 52.61 53.30 51.90 53.99 62.96 64.70 65.15 65.60 67.71 68.85 67.83 68.92 67.86 63.66
47.79 50.47 52.91 54.72 55.11 55.67 55.34 55.12 60.03 63.22 64.74 64.64 65.51 64.69 63.15 62.55 46.96 47.72 51.37 65.09 63.59 62.93 62.15 62.02 62.65 62.47 62.34 62.71 63.73 63.16 63.00 65.55 65.25 62.32 64.61 67.40 68.69 69.33 69.98 69.73 69.30 68.31 66.56
45.81 47.67 49.66 51.93 53.51 55.11 54.71 53.51 58.35 58.88 62.85 64.05 63.54 65.37 65.05 63.31 44.96 45.01 51.56 61.96 61.41 61.17 61.07 61.66 61.51 61.25 52.80 49.35 62.45 61.22 61.85 63.37 59.70 53.06 52.02 50.34 49.98 48.71 53.85 64.82 67.17 61.22 60.87
43.23 44.80 47.68 49.00 50.27 49.36 55.44 55.70 54.55 58.05 57.83 59.71 61.17 63.50 61.32 64.94 43.36 43.95 52.03 57.39 61.28 59.35 62.53 61.96 51.50 56.38 49.29 45.63 61.98 61.94 60.60 60.92 61.75 63.89 64.02 61.93 56.13 60.63 52.15 65.21 65.89 62.21 61.45
44.92 46.18 46.53 47.31 49.31 49.40 49.21 56.40 56.87 54.40 55.85 57.13 58.64 61.01 61.82 62.39 53.98 43.13 44.35 59.35 58.03 58.56 58.50 59.21 59.94 45.56 43.71 42.71 46.36 62.84 60.24 58.58 57.53 60.48 61.98 64.57 64.65 66.09 65.47 64.56 64.81 64.82 64.11
43.19 43.11 44.07 46.14 45.81 46.75 48.75 49.60 55.78 56.54 52.71 53.06 55.04 57.66 60.65 63.11 53.68 43.23 43.19 43.94 53.24 59.43 59.29 59.15 58.36 42.77 42.87 42.73 47.93 50.15 43.91 45.45 59.12 60.23 62.62 62.48 63.44 64.41 65.01 65.56 67.93 67.95 69.17
41.59 41.17 42.04 43.17 45.06 44.51 44.80 48.12 51.15 56.23 55.23 52.20 54.17 54.99 58.70 60.71 62.23 45.72 42.30 42.99 43.51 56.30 58.54 53.33 44.27 42.51 43.26 44.78 41.75 41.06 40.60 59.28 59.34 61.10 61.69 62.60 64.52 65.00 65.27 67.28 67.66 67.81 67.87
41.26 40.53 41.03 41.05 42.29 44.12 44.75 46.57 50.53 53.23 55.45 55.53 57.00 56.98 58.04 59.57 61.07 58.29 53.33 50.71 44.30 49.13 51.08 55.61 52.46 48.77 43.67 47.50 50.48 54.07 59.55 60.40 59.73 62.16 62.77 65.04 66.57 65.53 63.92 65.48 65.88 65.85 66.00
41.62 41.14 41.76 41.35 41.54 42.00 43.51 45.26 46.05 52.81 54.37 55.28 57.14 56.29 57.65 56.82 57.76 56.21 55.37 56.06 55.69 52.20 54.30 56.88 56.53 56.67 56.79 57.51 58.38 58.03 59.72 60.16 61.47 62.64 63.60 63.84 63.28 63.25 64.01 65.15 65.10 64.87 63.63
42.01 40.93 40.37 41.28 41.27 41.81 42.64 43.76 42.33 41.92 41.12 40.87 43.42 50.60 55.46 51.74 46.75 45.69 46.67 46.35 46.07 44.40 53.13 56.00 56.37 56.93 56.31 56.66 58.03 59.01 60.65 57.87 62.05 63.28 63.57 62.72 61.79 62.65 63.14 64.11 64.77 64.31 63.24
42.55 40.90 40.89 41.50 41.73 41.71 43.04 43.20 42.28 44.18 42.21 41.93 40.42 42.85 42.72 41.13 41.54 43.13 42.18 40.85 41.36 44.54 55.96 56.23 56.15 56.01 55.97 56.73 58.34 59.22 59.45 60.37 62.29 63.17 62.28 62.50 63.29 62.74 60.29 62.94 63.41 62.89 62.23
44.11 41.14 41.70 42.23 42.42 42.86 43.97 44.75 44.36 44.16 45.51 45.97 43.36 43.51 42.43 41.87 40.21 40.66 39.71 44.49 50.24 48.80 54.96 54.57 54.48 54.81 55.69 56.98 58.53 59.46 59.83 60.63 61.63 62.23 62.54 63.99 64.01 63.45 62.15 62.75 63.55 63.22 62.24
45.45 44.13 43.24 43.89 44.56 44.90 44.15 45.47 47.74 46.77 46.16 46.68 48.75 43.72 41.61 39.32 38.11 37.78 39.63 55.89 54.51 54.12 53.84 53.67 54.69 55.26 56.26 58.42 59.47 60.33 60.13 61.22 60.22 62.17 64.25 64.12 64.25 64.42 63.24 63.32 63.10 54.50 56.35
48.33 42.85 44.86 46.03 46.79 46.37 45.58 46.15 45.98 46.02 46.14 47.15 46.47 48.39 50.61 48.12 50.68 51.69 52.79 54.34 54.70 54.51 55.10 54.72 55.33 56.51 57.14 58.23 60.19 60.19 61.02 60.77 61.37 63.75 64.27 64.06 63.28 63.98 62.76 61.69 63.04 61.91 60.63
48.59 48.34 43.76 47.28 46.25 46.23 46.10 46.91 48.47 47.88 46.69 46.38 46.21 48.55 44.81 50.69 51.01 51.85 52.68 53.47 54.06 54.59 55.64 56.59 57.01 57.89 57.92 58.90 60.22 61.92 62.25 61.80 64.06 64.31 63.23 63.23 63.83 64.19 63.15 61.38 61.78 61.30 61.29
49.58 49.87 48.39 48.03 48.48 48.29 48.13 48.05 46.51 45.87 45.75 45.86 47.31 49.72 36.97 50.93 52.07 52.09 52.75 53.29 54.24 55.47 56.86 57.93 58.49 59.05 59.56 59.46 59.46 62.72 61.89 62.63 64.14 64.15 64.37 63.89 64.82 63.93 61.94 62.70 61.96 62.18 58.67
50.81 50.65 50.07 50.25 50.67 46.98 49.57 49.99 49.57 49.61 48.78 48.76 50.28 50.32 50.34 51.72 52.67 53.20 53.80 55.07 56.31 57.29 57.36 57.94 58.55 57.75 60.33 60.79 63.03 62.80 63.42 64.23 64.76 65.19 65.19 63.70 63.01 62.74 62.04 62.01 62.28 60.88 59.65
50.50 51.75 52.29 51.84 51.41 50.78 52.38 52.94 52.01 48.05 51.80 51.90 52.87 53.80 52.82 52.79 54.06 55.28 55.83 57.01 56.80 57.92 57.85 58.96 57.25 59.28 61.24 62.06 62.88 63.76 65.53 65.84 65.39 64.99 64.26 62.63 62.93 61.21 62.89 62.13 60.50 60.52 58.69
43.00 45.92 48.59 51.05 53.80 53.78 54.03 53.37 53.52 53.89 53.58 55.58 54.90 54.43 52.44 53.59 54.45 55.78 55.65 55.75 55.46 56.96 58.00 58.70 60.44 61.56 61.89 62.84 62.55 63.92 57.08 43.45 60.37 55.97 65.02 63.47 61.79 61.31 59.87 59.40 59.29 56.84 54.07
38.44 39.81 41.75 44.23 46.83 49.08 51.28 51.98 51.72 51.68 51.42 52.45 54.90 56.66 55.58 54.31 54.82 56.31 56.59 57.37 58.05 58.37 59.54 61.46 61.67 62.22 62.81 63.32 63.41 51.69 39.10 40.01 52.72 44.36 61.94 61.89 62.30 61.30 60.42 58.49 57.08 55.58 54.27

GFSGL_sfc_wetblb_093.txt.gz
Wetbulb
52.27 52.16 52.94 54.34 55.73 56.82 56.25 58.42 60.73 60.76 57.16 57.77 59.56 60.46 61.16 60.25 61.88 59.00 59.60 60.29 59.30 59.44 65.87 65.47 64.61 64.71 64.47 63.72 63.54 62.66 62.56 62.55 60.74 61.01 62.04 62.56 62.25 63.51 65.13 65.66 65.79 65.44 66.98
50.82 51.65 51.49 52.23 54.14 54.79 55.38 56.31 58.71 57.50 57.14 58.07 60.21 61.30 61.00 60.61 60.33 58.49 58.79 59.30 58.46 58.06 64.43 65.24 65.48 66.12 64.28 64.32 63.63 63.25 63.12 63.22 62.00 60.78 60.12 60.82 61.30 61.65 62.56 62.91 64.33 66.99 66.27
49.26 49.12 49.72 50.45 51.12 53.01 54.67 55.52 56.75 57.90 56.42 56.74 59.80 60.07 60.72 60.43 60.23 59.54 60.03 58.89 58.89 60.71 63.69 64.91 65.30 65.72 64.68 64.04 63.41 62.80 62.68 63.47 62.11 60.78 60.50 60.32 60.64 60.36 61.24 62.14 63.21 63.49 66.55
47.77 47.22 46.93 47.79 49.22 50.08 51.08 52.93 56.17 57.42 56.59 55.76 56.60 59.40 59.36 59.81 58.97 57.82 58.29 57.75 58.77 61.17 65.07 66.57 64.79 64.83 63.17 62.84 63.20 62.56 61.41 61.07 59.46 58.03 56.27 56.52 57.73 58.37 60.36 59.63 60.20 61.08 61.56
46.66 45.91 45.71 47.06 48.09 48.54 49.15 50.47 51.96 55.77 58.01 59.54 59.52 57.93 56.31 56.74 58.36 57.52 57.97 59.03 60.93 62.33 64.52 65.06 64.02 63.09 60.90 60.32 59.72 59.25 57.47 57.00 56.02 53.69 51.57 50.26 50.13 51.38 53.17 58.26 58.84 59.91 60.77
45.06 44.62 45.32 45.62 45.93 46.42 47.57 48.46 49.15 49.99 54.88 58.70 57.81 59.01 55.77 57.32 54.35 51.36 55.67 56.42 59.78 63.07 61.44 58.70 56.95 56.32 54.43 53.49 54.21 53.66 53.95 53.16 53.29 52.70 51.08 49.29 48.27 50.28 54.77 56.99 58.00 57.16 55.60
44.59 44.76 44.69 45.01 44.99 45.53 47.18 46.84 47.83 47.69 49.92 56.18 57.69 57.82 57.68 56.72 51.40 49.34 51.36 59.54 62.85 59.09 57.26 55.67 56.13 57.07 55.50 54.94 52.37 51.62 51.23 50.77 52.03 50.56 48.89 50.43 52.09 54.89 57.59 56.62 56.76 58.10 57.46
43.15 44.25 44.01 42.77 43.39 45.24 45.42 44.59 46.58 46.86 47.80 52.62 55.03 56.53 56.80 56.42 51.51 50.18 51.65 61.22 58.36 57.44 56.61 55.73 56.99 56.66 56.74 57.86 57.36 55.75 54.42 54.95 53.41 52.36 51.21 52.74 54.21 56.25 57.83 59.40 58.72 59.24 59.22
40.89 41.65 42.83 42.81 43.01 44.05 43.86 44.66 44.07 44.62 46.81 50.65 55.15 56.01 55.50 55.29 50.65 49.17 55.71 58.08 56.87 56.60 57.45 57.27 56.87 56.05 49.43 49.68 56.03 55.42 55.92 55.87 56.34 53.25 53.18 51.12 48.95 47.86 50.74 58.35 59.09 59.13 56.00
40.48 41.19 42.20 42.33 41.92 41.76 42.64 43.40 44.06 45.63 47.24 49.28 52.72 54.18 53.81 54.87 51.51 47.51 55.37 57.39 56.04 56.32 55.79 56.06 52.66 54.67 45.51 47.27 53.79 54.67 54.13 54.36 56.57 55.20 54.15 51.23 47.75 53.05 48.55 57.61 61.29 59.98 56.40
41.51 42.02 42.30 42.60 42.31 42.29 42.32 43.76 44.97 44.87 46.82 47.84 51.00 54.79 57.10 56.42 55.07 46.05 47.31 57.12 56.28 55.42 55.29 54.65 52.96 47.73 44.64 43.69 49.09 54.85 53.66 54.62 53.51 53.08 52.39 52.46 54.05 56.74 59.99 58.91 60.50 61.95 56.64
41.48 41.86 42.21 42.82 43.18 43.47 42.05 42.34 43.31 44.00 44.71 46.59 46.24 50.98 56.36 57.18 50.76 48.61 46.95 45.24 52.95 55.07 53.86 54.18 53.66 45.51 42.75 40.98 43.75 46.03 47.11 46.20 51.95 51.41 51.17 51.68 53.66 56.16 61.92 63.35 61.02 61.36 61.14
41.49 42.19 42.99 43.52 43.50 43.17 41.41 41.41 42.20 44.43 44.49 45.21 46.16 48.45 51.59 56.44 55.03 46.95 47.58 44.70 44.27 51.80 53.25 50.89 41.37 40.90 41.02 41.96 43.95 42.49 42.86 50.67 50.33 49.78 50.35 51.81 55.08 59.74 61.39 60.86 61.15 62.07 61.94
41.97 43.04 44.40 44.49 43.40 42.94 42.44 42.04 41.25 42.79 44.56 45.24 46.65 47.59 50.70 54.59 54.76 55.72 54.61 46.59 44.54 46.61 46.76 46.55 45.71 45.35 45.53 47.18 45.24 43.40 47.30 48.48 49.33 50.20 51.75 54.21 58.12 61.16 59.19 60.21 59.53 59.67 58.61
43.44 44.41 44.44 42.70 41.78 42.06 42.30 41.86 41.98 43.57 44.60 44.31 46.40 45.77 44.77 49.23 53.92 52.75 52.49 53.19 47.38 46.38 48.62 48.33 47.58 48.35 48.66 49.31 49.91 50.46 49.81 49.67 50.57 52.08 54.46 55.96 56.96 59.39 59.19 60.19 59.31 59.10 58.30
42.07 44.69 42.01 41.47 41.35 41.79 41.58 41.24 40.32 41.01 41.00 41.46 41.98 44.21 45.72 42.16 43.50 45.37 45.42 44.68 44.54 42.64 47.73 47.48 47.68 48.40 48.56 48.91 49.68 50.26 50.88 50.78 50.61 52.68 56.20 56.96 57.28 59.81 58.73 59.03 60.25 58.95 58.33
41.73 44.89 42.11 41.87 41.86 40.82 40.68 40.27 39.83 40.92 40.22 40.21 41.21 41.45 41.03 41.37 40.79 44.21 43.87 43.65 43.19 44.17 46.57 47.39 48.03 48.89 49.38 50.13 50.57 49.98 49.16 50.50 53.21 55.21 57.06 57.04 59.29 60.36 57.74 58.49 59.49 58.93 58.39
43.30 43.87 42.32 42.76 42.43 41.85 41.80 41.51 41.87 41.79 40.26 41.84 41.59 43.33 42.71 41.70 41.60 41.47 41.91 44.09 45.29 46.49 48.57 47.09 47.98 49.16 50.41 50.74 50.26 48.75 49.19 50.37 54.77 55.55 57.00 57.82 59.04 59.30 58.94 59.28 58.67 58.03 58.49
44.18 45.95 44.75 43.72 43.71 43.21 43.57 43.34 43.67 43.50 43.89 41.58 44.02 42.26 41.47 38.73 38.85 39.88 41.72 52.31 51.05 50.60 49.52 48.98 49.29 49.79 50.74 49.73 48.96 48.80 49.04 50.11 54.38 56.98 57.32 58.02 59.27 59.19 57.80 58.44 58.05 49.67 54.36
42.75 43.93 44.30 46.26 45.57 43.97 44.18 43.99 43.15 43.92 43.81 44.13 44.33 45.57 44.63 42.22 45.35 43.18 46.56 51.79 50.32 51.27 50.94 50.80 50.62 50.34 49.33 48.90 48.23 48.74 48.88 49.83 53.66 57.02 57.10 57.78 58.30 59.17 58.43 58.02 58.43 58.15 58.43
43.46 47.53 44.95 46.65 46.08 45.47 44.17 44.17 44.96 44.64 44.21 44.87 46.26 46.83 39.73 45.59 46.32 46.00 47.76 48.83 51.63 51.80 51.75 51.00 49.86 49.45 49.17 49.02 48.87 48.72 49.39 51.63 55.72 56.70 57.40 57.90 58.86 58.56 58.36 58.43 59.47 58.10 55.27
42.02 43.86 46.62 48.67 48.19 46.74 46.33 46.49 46.61 45.71 45.30 45.17 46.42 44.72 36.83 45.27 47.62 48.98 49.85 49.71 50.00 51.17 51.03 50.99 49.67 49.69 49.70 49.98 50.13 49.97 49.85 55.84 57.50 57.78 58.36 58.64 59.08 58.76 58.01 59.02 58.07 56.75 55.29
38.00 39.99 42.04 43.86 45.27 44.74 47.80 47.22 45.68 45.94 45.75 44.88 45.60 43.95 43.16 43.82 44.22 45.37 48.58 50.79 50.71 50.37 50.11 50.01 49.56 49.52 50.14 50.88 52.12 52.74 52.86 57.41 58.67 59.50 59.08 58.78 58.60 58.11 58.53 58.44 57.51 56.94 55.33
35.12 36.19 37.39 39.17 40.63 41.85 46.31 48.99 47.91 42.77 43.68 43.99 45.18 45.19 44.80 44.71 44.81 45.81 46.24 48.33 49.64 49.62 49.33 49.27 49.38 49.44 49.83 50.68 53.55 58.54 59.42 60.27 60.68 60.46 60.54 59.20 58.21 56.74 59.29 58.28 57.42 56.58 54.81
33.19 33.65 34.47 35.32 37.14 38.41 40.39 42.85 48.56 48.62 46.72 47.11 46.47 45.10 46.01 46.81 46.42 47.16 47.49 48.53 48.15 48.93 49.13 49.32 49.66 50.25 50.94 51.11 52.39 57.14 53.08 43.33 55.09 48.95 60.23 59.59 58.95 59.36 59.55 59.14 57.40 56.04 53.07
32.27 31.97 32.43 33.13 34.13 35.47 36.25 37.74 39.32 42.02 47.96 48.62 47.60 47.83 48.73 47.49 47.59 47.37 47.81 48.81 49.01 48.34 48.47 49.52 50.24 51.14 52.12 53.14 54.77 49.18 40.24 39.16 48.32 42.60 58.93 59.81 59.19 59.31 59.31 58.48 55.01 54.09 51.80

GFSGL_sfc_wetblb_096.txt.gz
Wetbulb
47.71 47.99 48.06 48.61 49.58 50.86 53.31 54.42 55.13 56.53 57.49 56.99 57.82 58.54 59.77 61.27 60.67 59.34 59.61 60.54 58.51 59.00 60.41 59.61 59.85 60.20 59.27 61.49 63.26 61.39 60.38 59.22 57.59 57.82 60.22 61.39 61.83 61.80 62.82 65.24 65.28 64.14 63.61
46.67 46.85 46.78 47.03 47.61 48.08 49.03 50.20 52.41 53.75 56.70 56.50 57.09 57.88 58.93 60.34 59.98 58.38 58.60 59.13 56.43 56.67 58.91 58.94 58.51 59.13 61.81 62.74 63.13 61.61 61.68 61.68 59.92 57.79 58.92 59.84 61.06 61.51 61.46 60.54 62.15 64.75 64.07
46.26 46.12 46.00 46.20 46.29 46.22 47.03 48.37 49.34 50.77 52.96 55.97 56.48 56.34 57.36 58.48 60.01 59.62 57.90 58.52 57.37 58.20 59.12 59.52 60.08 60.26 61.16 61.87 63.47 62.26 61.81 62.70 61.67 60.43 59.13 59.44 59.87 59.19 58.60 59.49 60.30 61.85 64.37
46.37 45.74 44.90 45.06 45.63 45.86 46.29 47.38 48.41 49.44 49.93 52.24 55.88 56.35 57.25 58.89 59.65 59.91 59.36 58.32 57.80 59.46 58.73 58.14 58.15 59.22 60.32 62.24 63.39 62.32 61.79 61.72 60.22 59.75 57.95 56.18 55.98 55.84 57.25 56.34 56.33 58.95 60.17
44.25 43.97 43.99 44.63 45.26 45.39 45.27 45.68 46.42 47.41 48.84 50.16 52.30 55.62 56.53 57.37 58.00 59.04 57.59 57.20 55.84 56.25 58.04 59.19 59.64 60.72 61.63 62.19 62.97 60.96 60.93 59.07 57.83 55.42 52.18 49.74 48.67 48.52 49.00 54.51 55.64 57.22 58.07
42.35 43.11 43.03 43.75 44.26 44.43 44.94 44.95 45.43 46.76 48.00 48.79 50.60 52.49 56.49 57.89 52.33 50.83 53.20 56.29 57.90 58.63 59.00 60.93 63.35 60.76 58.95 56.56 56.44 56.50 58.38 56.74 54.06 52.26 50.39 49.01 48.02 47.27 51.51 54.85 56.92 55.30 54.74
41.78 42.00 42.62 43.35 44.22 44.43 43.11 42.78 43.35 45.09 45.62 46.23 48.54 52.43 54.95 56.49 50.11 48.77 50.76 54.86 55.31 56.03 58.13 60.58 60.04 61.43 57.20 56.79 52.68 52.05 51.36 50.77 52.72 51.38 47.29 46.67 48.38 51.02 54.93 55.42 54.96 55.98 56.30
40.76 41.24 42.04 41.83 42.16 43.22 42.82 42.26 42.70 43.23 43.39 46.39 48.38 51.55 54.55 56.78 50.26 46.67 49.02 52.84 54.16 55.35 58.92 57.98 56.26 54.61 54.17 53.59 52.71 52.43 52.00 51.71 51.34 51.12 50.09 50.79 53.17 55.01 55.68 56.70 56.68 56.88 57.78
40.28 40.81 41.84 42.22 41.79 41.76 41.83 41.49 42.08 43.07 43.55 42.53 45.00 46.88 52.24 55.33 48.48 47.76 50.43 54.61 54.67 56.44 58.34 57.47 56.63 56.26 49.64 49.27 56.50 55.84 54.83 55.12 53.28 49.92 48.89 48.46 47.43 48.64 52.34 55.80 54.37 56.48 55.82
39.88 40.71 41.69 41.64 41.88 41.78 42.14 42.01 42.41 42.30 42.71 44.34 45.34 46.81 49.73 53.66 47.74 47.39 48.64 53.63 53.28 56.66 57.18 56.72 51.97 54.44 45.15 47.21 54.06 53.87 52.46 52.69 54.67 53.31 52.04 49.34 46.89 48.81 47.59 56.12 57.26 57.40 57.82
40.61 41.05 41.53 42.08 42.29 42.93 43.00 43.10 42.58 42.15 42.44 44.71 45.56 46.82 50.28 52.91 53.33 45.74 44.49 52.17 54.45 56.58 56.20 55.39 54.05 44.44 43.89 44.90 48.88 52.47 50.80 53.58 52.15 52.64 51.17 50.54 51.24 52.55 53.94 55.20 59.11 61.37 58.65
40.30 40.51 41.21 42.28 43.36 44.47 43.90 43.74 42.94 42.06 41.53 42.67 43.66 44.88 49.25 55.02 49.33 44.66 44.49 45.31 52.37 56.26 55.55 55.01 51.72 43.12 42.40 42.66 47.98 42.30 41.77 48.42 51.71 50.26 49.15 48.97 49.67 51.32 54.37 61.23 61.55 61.91 62.14
39.52 39.52 40.92 43.27 44.69 45.06 43.16 43.13 41.87 41.48 41.12 41.95 43.40 44.31 48.00 55.06 54.13 45.40 44.49 46.07 47.34 55.31 55.97 51.81 44.10 40.90 40.35 41.26 41.49 40.85 43.59 50.95 49.69 48.20 47.59 47.73 50.26 53.41 57.38 59.44 58.85 59.49 60.08
38.57 40.25 41.78 43.21 43.11 42.34 42.67 43.36 42.09 41.39 41.24 42.43 44.12 46.21 47.14 52.68 54.15 51.86 50.28 50.03 48.12 49.79 46.64 45.24 44.61 44.50 44.66 45.09 44.76 43.29 47.98 47.70 47.09 46.92 47.41 49.58 52.57 55.62 56.50 57.88 57.30 57.36 57.22
38.26 39.33 41.10 43.47 42.21 41.57 42.48 42.94 42.43 42.97 42.23 42.88 45.87 46.46 44.97 47.41 44.49 44.03 51.17 50.73 50.77 47.66 47.31 47.49 47.46 46.54 46.54 46.76 46.97 47.12 46.82 47.23 47.97 48.79 49.69 51.91 54.10 54.54 56.28 57.40 58.13 57.91 57.12
37.20 39.14 41.37 42.57 42.23 41.80 41.35 41.35 40.55 40.07 40.17 40.44 41.24 44.80 45.88 42.97 39.98 40.52 42.86 44.68 42.66 43.31 47.32 47.27 45.98 46.82 46.77 47.28 47.62 47.71 48.96 49.36 49.67 49.61 50.08 52.06 54.54 54.44 56.32 56.98 57.60 56.86 56.62
37.84 40.11 42.89 42.80 42.32 41.06 41.05 40.48 39.22 41.43 39.86 40.06 39.98 40.76 40.96 41.32 39.45 40.53 39.93 40.07 39.37 44.62 46.15 46.00 46.47 46.72 46.84 47.60 48.03 48.21 48.54 48.10 49.69 50.47 52.29 54.52 55.06 56.26 55.09 56.54 57.34 57.73 56.84
39.23 39.88 43.94 44.05 42.83 42.32 41.91 41.77 41.83 40.94 40.48 40.01 41.13 41.00 41.40 40.16 38.90 38.54 40.01 41.95 43.97 45.92 46.46 46.33 46.60 47.41 47.90 48.31 48.56 48.13 47.41 47.05 50.19 52.15 53.01 55.02 55.32 56.64 57.00 57.16 57.38 57.14 57.42
37.61 39.94 42.94 46.35 44.52 43.62 43.27 42.94 42.94 42.87 42.99 41.97 42.88 41.67 42.20 39.68 39.45 38.88 38.22 49.53 50.01 47.56 46.41 46.19 46.89 47.79 48.29 49.16 48.46 47.61 47.22 46.96 49.00 51.87 53.93 55.22 55.66 56.88 56.20 56.48 56.06 49.39 52.96
37.83 39.91 42.27 46.42 46.55 44.92 44.26 43.71 43.56 43.17 43.65 43.08 40.85 43.32 44.93 43.59 41.30 42.51 44.36 50.21 48.17 49.62 48.91 47.61 48.08 48.17 48.53 48.50 47.16 47.05 47.29 46.66 48.70 50.39 53.81 55.64 56.06 56.72 56.30 56.34 56.80 57.73 58.09
37.72 39.81 39.39 44.16 45.29 46.91 45.30 44.06 44.50 44.51 44.45 44.30 42.57 44.05 39.60 43.41 43.99 45.55 47.12 49.36 50.87 50.47 49.20 48.80 48.96 49.06 48.59 47.81 47.64 47.36 46.95 47.47 48.95 50.82 54.01 55.84 56.20 56.22 56.96 56.76 57.89 57.06 55.86
36.18 37.27 38.84 40.20 42.01 42.37 44.66 46.76 46.62 45.33 45.26 45.46 45.88 43.34 36.13 46.09 47.06 47.41 48.94 49.08 49.72 50.59 49.98 50.07 48.98 49.00 48.47 48.39 48.64 47.77 48.07 48.54 50.77 53.52 55.44 56.00 56.62 56.66 56.86 57.91 56.94 55.76 53.35
34.46 35.25 35.83 36.95 38.74 38.82 41.78 47.38 45.76 45.15 44.60 45.71 46.20 45.16 43.45 44.69 44.81 45.48 47.85 48.27 48.58 49.35 49.67 49.56 48.85 48.21 48.52 49.10 49.21 49.38 50.03 51.24 52.46 54.89 56.38 56.28 56.42 56.68 57.12 56.84 55.92 54.96 54.44
33.25 33.40 33.33 34.05 35.48 36.54 37.77 40.11 47.32 41.85 42.47 43.66 45.17 43.98 44.60 44.69 43.44 43.94 45.78 46.78 49.16 49.44 48.28 48.43 48.45 48.54 48.62 48.78 49.32 52.90 56.53 57.07 57.19 57.89 58.03 57.42 56.66 54.61 57.06 56.88 56.82 55.94 53.70
32.11 31.92 31.83 32.00 32.81 33.67 34.95 36.55 38.44 41.27 45.70 45.40 43.14 44.22 44.88 43.95 43.61 44.31 45.05 46.63 46.00 47.58 47.87 47.89 48.04 48.49 48.83 48.58 48.94 49.58 48.14 41.23 52.74 48.84 58.70 57.80 57.26 57.70 57.48 57.16 56.42 54.95 52.32
31.61 30.98 30.75 30.70 31.01 31.52 32.47 33.66 35.13 36.64 38.39 41.99 47.21 43.57 43.46 44.07 44.38 44.64 44.95 45.31 45.38 46.06 46.90 47.57 48.03 48.84 49.24 49.38 50.23 44.72 38.32 37.97 44.93 37.79 56.54 57.56 57.76 58.77 58.50 57.72 56.38 54.99 52.82

GFSGL_sfc_wetblb_102.txt.gz
Wetbulb
45.33 45.39 45.34 45.46 45.83 46.40 46.21 46.56 47.37 48.22 49.42 49.88 49.86 50.30 51.31 52.85 54.77 56.34 57.86 58.58 59.28 59.96 61.11 61.99 62.69 63.82 62.58 62.32 62.43 61.64 60.32 58.71 55.82 57.35 59.52 61.53 61.99 62.70 64.98 66.76 67.00 67.13 66.83
45.13 44.98 44.59 44.44 45.29 44.78 45.22 45.96 47.10 46.84 47.89 47.93 48.67 49.47 50.09 50.29 51.94 53.87 55.62 57.05 57.80 58.31 59.36 59.98 59.59 61.31 62.37 62.59 61.84 61.21 60.81 59.01 57.23 55.81 58.81 59.76 60.58 63.37 65.15 64.76 64.89 66.07 67.26
44.23 43.84 43.47 43.56 43.45 43.57 44.36 45.42 45.85 46.04 46.56 47.12 47.33 46.81 46.93 47.88 48.47 50.59 54.10 55.08 56.67 58.39 59.08 58.94 58.68 59.10 59.39 60.91 61.62 60.35 59.44 59.45 58.82 57.66 57.35 60.63 61.80 64.30 63.33 62.98 63.64 65.29 65.49
43.02 42.66 42.46 42.25 42.64 43.23 44.20 43.91 44.42 45.47 45.61 46.11 46.80 46.12 45.97 46.95 47.51 49.22 50.69 53.14 55.22 57.63 59.20 59.48 59.31 59.10 59.15 59.54 59.63 59.84 59.58 58.81 58.82 58.06 58.07 60.10 61.96 61.47 62.43 61.39 61.10 62.72 63.60
42.05 41.89 41.84 42.33 42.70 43.20 43.14 43.28 43.83 44.94 46.00 47.17 45.26 44.94 45.41 46.14 48.98 49.85 51.06 52.36 55.42 56.98 58.23 59.10 59.73 58.94 58.85 58.98 59.91 59.75 59.54 58.61 58.84 59.01 57.83 59.52 57.63 56.12 57.80 58.64 59.52 60.55 61.57
41.13 40.72 41.80 42.60 42.95 43.07 43.33 43.23 43.29 43.19 43.95 44.65 44.06 44.15 44.78 45.87 45.09 45.70 47.05 47.78 52.27 56.46 56.54 58.07 59.10 58.03 57.56 55.47 55.29 55.69 58.77 59.71 58.37 57.61 56.93 57.47 54.54 56.03 56.53 57.97 58.59 59.30 58.52
40.32 40.93 41.66 42.67 42.61 42.74 42.69 42.79 42.54 42.23 43.05 43.66 43.65 44.10 44.09 45.28 43.87 43.89 45.96 48.64 50.59 54.58 55.91 56.19 56.62 59.06 57.43 59.30 55.21 53.32 54.31 54.07 57.02 59.87 56.51 56.26 52.89 53.92 57.26 58.74 58.94 59.17 59.05
39.95 40.54 41.71 41.74 41.35 41.63 41.76 41.46 41.83 42.33 42.58 43.05 43.74 44.15 44.26 44.94 44.02 43.00 44.33 47.22 50.40 55.01 55.61 55.57 55.73 57.18 58.14 57.36 58.00 58.03 58.77 58.15 57.29 59.00 58.90 55.67 55.45 55.40 59.00 60.85 60.33 59.75 60.53
39.40 40.03 40.84 40.71 40.00 40.73 40.75 41.75 42.19 42.29 42.56 43.21 44.01 43.98 43.60 44.06 42.89 42.20 43.52 46.16 48.09 52.47 55.47 56.22 57.44 57.94 50.81 47.10 56.15 56.26 55.18 52.05 49.39 50.39 49.17 46.13 45.73 49.03 55.71 59.78 58.81 58.36 56.26
39.01 39.55 40.41 40.34 40.30 40.42 40.92 41.39 42.41 42.79 42.96 43.92 43.92 44.52 44.61 43.97 42.88 42.02 43.26 46.37 47.87 50.86 54.57 55.93 49.80 51.94 45.10 46.55 54.13 54.59 52.72 52.49 52.77 52.75 52.02 50.31 51.94 51.13 50.17 59.23 58.37 56.16 56.20
39.40 39.82 39.51 40.06 39.98 40.25 40.95 42.27 42.90 44.13 43.98 42.68 42.77 43.81 44.50 44.21 44.34 42.05 42.50 46.39 48.31 51.49 53.75 55.73 55.58 47.10 46.01 45.28 43.82 54.75 54.15 55.88 52.49 55.21 54.03 53.82 54.00 54.10 54.03 56.18 58.13 59.36 58.68
38.54 38.86 39.24 39.97 40.35 41.17 41.64 42.94 43.99 43.37 42.05 42.26 42.67 42.43 43.30 44.25 43.39 43.52 42.14 41.97 46.83 52.00 53.60 55.93 53.79 46.92 43.64 42.37 45.98 42.35 44.56 50.90 55.64 54.52 54.29 53.30 53.60 54.01 54.91 55.15 56.86 59.67 62.89
37.57 37.79 38.96 39.67 40.24 41.26 41.57 42.23 43.27 42.69 42.05 41.92 41.59 40.71 41.37 43.75 45.91 43.80 42.25 41.70 43.01 51.13 55.93 52.65 47.80 44.56 41.77 43.19 40.34 42.55 48.07 55.05 54.21 52.86 51.92 51.95 54.07 55.64 57.42 60.40 58.71 60.32 60.38
36.60 37.29 37.96 38.54 39.57 41.35 42.57 44.17 43.08 41.86 41.39 41.20 40.98 40.87 41.82 43.67 46.67 47.28 48.42 46.16 46.19 51.66 49.92 50.83 48.09 43.89 41.56 45.57 46.90 51.27 53.25 53.00 52.01 50.72 51.12 52.30 54.70 57.38 59.82 61.11 59.21 58.66 57.89
36.12 36.80 37.57 39.01 40.15 41.00 42.68 44.12 43.19 43.28 42.11 40.98 41.20 41.57 40.96 41.86 44.28 41.67 44.55 50.98 53.61 51.41 49.30 50.00 50.18 49.53 49.63 49.94 49.82 49.67 49.61 50.38 50.96 51.33 52.94 54.90 56.24 57.02 58.82 60.33 59.31 58.47 57.88
35.28 36.22 37.38 38.29 39.76 40.78 42.79 43.76 41.71 40.24 39.83 39.04 38.39 39.32 41.93 41.28 39.14 40.77 39.45 42.75 42.38 43.82 51.07 50.67 49.76 50.04 48.76 49.52 49.85 49.91 50.96 50.19 51.85 52.33 53.02 54.02 54.93 56.77 59.13 58.67 58.55 58.20 56.78
35.23 35.64 36.74 37.81 39.45 40.88 42.30 43.69 42.08 43.36 41.27 39.75 38.22 37.24 37.79 37.97 39.32 40.47 38.69 40.92 41.30 45.91 52.44 50.52 50.07 50.11 49.01 50.24 50.49 51.45 51.50 51.75 52.62 53.61 53.62 54.13 56.73 56.53 58.29 59.32 59.25 58.75 56.33
35.46 36.79 37.42 38.30 39.21 40.27 42.35 44.50 44.01 42.83 42.22 43.32 41.00 38.04 38.63 38.54 38.97 39.27 39.27 43.94 49.25 49.30 51.53 50.49 50.07 49.82 49.81 50.32 50.77 51.53 50.37 52.17 53.26 54.95 56.35 56.93 58.28 58.24 59.00 59.24 58.23 58.54 57.08
35.22 35.71 36.51 37.47 38.72 39.91 41.33 42.56 44.65 43.71 43.45 43.67 44.92 41.60 41.91 40.21 39.50 40.01 41.48 50.42 49.21 48.47 49.79 50.35 50.98 50.42 50.67 51.17 51.82 51.07 51.37 51.79 52.28 54.07 56.24 57.51 58.36 58.79 58.47 59.50 58.66 50.36 51.82
34.59 35.23 35.49 36.58 37.31 37.92 39.04 40.47 42.48 44.52 44.04 44.05 44.27 43.32 44.52 43.87 44.80 45.87 47.62 50.61 51.15 49.68 49.57 49.70 49.89 50.60 51.45 51.63 51.05 51.28 51.25 50.94 51.75 52.54 54.31 57.06 58.29 59.11 58.68 58.98 59.29 57.02 57.31
33.79 34.36 34.29 34.98 35.53 36.10 37.24 39.37 42.94 45.89 44.99 45.08 43.91 42.52 37.30 44.85 45.62 46.37 47.19 48.99 51.04 51.65 50.97 50.53 50.61 51.44 51.57 51.26 51.35 51.32 51.57 51.87 52.45 53.59 54.78 56.75 58.33 58.72 59.44 59.65 59.42 59.12 57.86
33.22 33.10 33.21 32.91 34.19 34.26 35.01 38.06 40.11 42.23 45.43 43.84 44.39 41.71 35.35 46.57 47.39 47.89 48.15 49.07 51.78 51.67 52.31 52.59 52.14 52.40 52.23 51.86 51.90 52.11 52.93 54.33 54.92 54.91 56.80 58.27 59.09 59.28 59.70 59.56 58.04 55.22 51.55
31.98 31.72 31.52 31.67 32.39 32.79 33.48 35.38 36.68 37.52 42.65 45.35 45.34 46.09 45.49 45.75 47.02 48.14 49.04 49.89 51.79 52.01 52.60 51.86 52.01 52.15 52.54 52.61 52.69 53.49 55.35 56.95 57.47 57.14 57.19 58.92 58.95 58.85 59.19 58.27 56.05 53.03 51.50
30.85 30.19 30.08 30.32 30.66 30.89 31.66 32.47 34.20 34.15 36.70 39.62 42.09 44.48 45.51 46.15 46.47 47.25 47.96 50.39 50.37 52.00 52.08 52.21 51.96 52.50 52.55 52.47 52.60 54.15 56.98 58.34 60.36 60.71 59.90 59.51 58.46 54.78 58.70 57.17 56.37 54.90 50.58
29.72 29.22 28.82 28.63 28.90 29.03 29.66 30.46 31.40 32.90 34.20 35.57 37.02 38.92 41.63 44.37 45.77 46.61 47.44 47.95 48.32 49.33 49.81 51.44 52.08 52.51 52.76 52.87 53.28 54.25 47.62 35.86 49.85 42.80 59.19 59.34 58.46 57.97 57.92 56.87 55.79 52.61 48.98
28.62 28.34 28.09 27.90 27.92 28.09 28.13 28.52 29.09 30.28 31.39 32.78 34.39 35.34 37.37 40.01 43.71 45.31 46.57 47.54 47.78 48.14 49.05 50.00 50.45 50.82 51.51 51.84 51.91 44.59 38.25 37.10 44.25 34.59 51.41 56.73 58.66 58.90 58.04 56.35 53.99 50.81 48.46

GFSGL_sfc_wetblb_105.txt.gz
Wetbulb
51.44 51.88 51.77 51.75 51.92 51.93 51.53 51.77 51.99 52.13 52.07 52.06 52.28 52.18 52.32 52.58 53.79 54.27 55.16 55.72 56.79 58.62 61.40 61.76 62.81 64.31 62.99 63.09 65.85 66.01 62.87 62.70 61.45 63.08 65.24 66.48 64.81 64.68 65.13 67.38 68.64 68.30 66.58
50.66 50.74 50.64 50.67 50.58 50.29 50.43 50.84 51.24 50.84 51.43 51.15 51.30 51.17 51.28 51.39 51.59 51.48 51.43 52.32 53.76 56.08 57.77 60.16 60.50 61.40 62.87 64.02 64.50 64.54 64.28 61.48 60.48 58.83 64.33 64.40 63.36 65.26 65.34 67.41 66.48 67.10 68.28
49.66 49.51 49.54 49.42 49.45 49.37 49.48 49.94 50.48 49.96 49.91 50.39 50.45 50.36 50.23 50.66 50.18 49.77 50.22 50.70 51.60 53.69 56.19 57.44 58.83 60.87 61.32 61.47 61.84 63.53 64.00 62.24 61.23 59.65 59.54 63.58 64.03 63.36 64.14 64.87 66.42 67.82 68.62
48.39 48.34 48.06 48.28 48.54 48.45 48.73 48.96 49.07 49.36 48.97 49.25 49.98 50.43 50.59 50.07 49.63 49.61 49.77 50.62 51.73 53.02 54.60 57.06 57.48 59.48 60.68 61.01 61.01 62.06 63.35 60.86 60.65 59.54 58.75 59.98 62.09 63.59 63.93 64.16 64.87 69.02 67.25
47.10 46.25 46.79 47.53 47.99 48.08 48.03 47.93 48.65 48.94 48.90 49.38 49.32 49.58 49.95 49.82 49.36 49.51 49.29 48.46 49.38 49.53 51.18 53.43 57.82 59.61 58.24 59.38 60.49 61.37 61.55 59.79 58.88 58.15 57.80 58.52 59.53 61.35 62.21 63.45 64.98 66.69 66.71
45.57 44.70 45.18 45.48 46.04 45.87 46.18 46.99 47.97 48.37 48.91 49.01 48.25 48.43 48.95 48.83 46.09 45.29 46.85 47.57 47.79 49.03 50.52 52.07 54.62 56.96 57.99 54.71 55.07 55.35 59.47 59.58 59.02 58.06 57.96 57.14 59.08 62.83 62.90 62.31 65.56 64.73 60.58
44.69 45.08 45.25 44.73 44.48 44.75 45.42 46.64 47.15 47.43 46.93 46.08 47.22 48.36 47.29 47.38 44.89 43.92 45.04 47.60 47.34 46.61 48.58 51.76 54.38 58.08 57.71 60.02 55.90 53.04 53.68 52.93 54.62 59.34 58.12 58.11 58.98 63.39 64.29 61.36 62.94 61.31 61.84
42.88 44.13 43.24 43.31 43.43 44.48 45.24 45.38 45.11 45.88 46.78 47.28 47.18 46.55 45.90 46.92 44.25 43.12 43.81 47.09 47.44 47.16 49.64 50.83 55.42 56.34 59.04 57.47 57.75 57.52 58.25 57.91 57.74 57.72 59.05 59.54 60.88 59.76 60.00 60.67 60.61 61.53 64.33
41.80 42.37 41.42 42.62 42.40 43.95 42.84 43.27 45.24 46.61 47.34 46.87 46.69 46.04 45.86 45.62 43.99 42.87 43.18 45.88 46.24 46.87 49.61 50.69 53.37 57.57 52.40 47.39 54.54 55.37 57.28 59.19 50.54 51.56 51.54 51.00 48.84 49.91 57.26 61.35 61.57 60.15 58.47
40.00 40.16 40.96 41.92 41.82 41.87 42.68 44.55 46.29 46.68 45.79 46.56 46.38 46.97 45.10 44.66 43.74 42.14 42.80 45.90 44.86 46.43 48.71 50.34 49.97 52.43 46.49 45.22 55.84 56.20 55.70 55.30 57.00 52.65 52.41 49.13 50.04 52.01 52.94 61.21 62.20 59.61 59.05
39.54 39.71 40.66 41.82 41.59 42.16 44.67 45.94 45.36 44.76 44.31 45.40 45.75 45.80 45.12 45.17 45.51 42.15 41.81 44.50 44.13 46.48 46.74 52.93 56.48 47.21 43.95 42.68 44.49 54.89 54.89 53.49 51.99 54.67 54.41 55.74 57.14 58.14 60.50 63.31 64.62 61.73 59.34
39.07 38.94 39.76 41.09 42.22 44.10 43.86 43.76 43.82 43.51 43.11 43.82 44.04 44.36 45.50 45.31 43.54 42.91 41.35 41.03 45.06 45.95 48.46 53.48 55.24 44.13 42.50 42.12 47.30 43.41 44.31 51.63 56.72 55.64 55.46 56.46 57.04 57.08 57.85 59.81 61.91 62.55 63.38
37.99 38.36 39.19 41.04 42.61 43.75 43.37 42.24 42.09 43.29 43.98 42.84 42.66 42.98 42.68 43.70 44.38 43.62 41.82 41.48 42.07 45.01 49.02 49.69 44.13 41.96 42.86 45.19 42.84 42.50 45.91 58.16 58.18 57.43 56.41 56.27 56.94 58.23 59.52 59.73 61.56 63.28 64.25
36.86 37.47 38.78 39.87 41.35 43.94 43.68 42.51 42.65 43.53 43.78 42.93 42.75 42.90 42.38 42.80 43.86 45.42 45.82 47.96 45.09 46.62 47.12 51.71 48.72 46.96 43.52 48.48 51.54 53.29 57.30 59.71 58.87 56.22 55.24 55.99 57.96 58.68 59.66 61.45 59.94 60.11 59.48
36.67 36.86 38.10 39.51 40.88 42.32 42.58 42.42 42.96 45.44 46.18 44.41 43.99 44.01 42.09 41.09 43.02 41.57 40.58 46.86 52.50 49.47 52.18 54.11 52.12 54.75 54.93 54.18 55.69 56.46 55.92 56.17 54.30 54.81 56.61 58.33 59.54 60.42 60.57 61.06 60.68 60.67 59.79
35.59 35.90 36.88 38.10 38.94 39.55 40.60 41.59 42.58 41.61 40.77 39.26 38.59 40.50 43.15 41.11 39.83 39.35 39.27 38.64 42.14 42.50 53.32 53.31 54.41 55.80 54.11 53.87 54.81 54.65 55.55 53.53 56.50 57.81 58.88 59.12 59.12 60.66 60.39 60.57 60.87 60.29 58.50
35.04 35.78 37.32 37.87 38.37 38.54 39.37 40.50 40.99 45.24 42.50 40.36 39.31 38.43 37.70 37.94 38.14 39.06 39.12 38.86 39.24 44.82 53.34 55.16 56.37 55.34 54.39 55.04 55.52 55.07 54.99 56.26 57.21 57.83 58.92 59.84 60.11 62.22 59.39 59.30 59.37 58.93 56.62
35.40 35.86 36.46 36.49 37.13 38.02 39.45 39.91 41.53 43.60 44.77 47.85 43.33 40.10 39.34 38.61 39.12 39.37 38.28 42.09 47.94 50.87 54.96 56.39 56.42 55.39 54.51 55.13 55.73 54.65 55.73 57.89 59.60 59.24 59.76 61.10 61.23 62.09 61.66 60.43 59.20 59.68 57.20
34.65 35.15 35.07 35.76 37.00 37.56 38.54 39.94 41.19 43.11 46.34 45.97 48.43 45.48 43.86 40.85 40.65 41.21 43.59 52.20 52.28 54.62 56.40 57.26 57.18 55.68 54.70 56.16 56.43 55.71 56.16 56.44 58.35 60.56 61.00 61.55 61.83 61.42 61.76 62.60 60.34 52.45 52.93
33.96 34.34 34.13 34.80 35.57 36.05 37.01 37.88 40.78 42.16 45.58 47.10 47.01 47.57 48.67 46.37 47.27 48.19 50.91 52.99 55.33 55.98 56.44 56.88 57.03 56.52 56.74 57.57 57.15 57.38 57.18 56.78 57.22 59.15 61.23 62.06 62.83 62.75 61.26 61.99 59.81 58.41 58.47
32.95 33.10 33.03 33.68 34.06 34.85 35.16 37.30 38.41 39.76 45.12 46.27 47.45 45.10 34.07 49.27 48.80 48.68 50.88 54.70 54.77 55.47 56.28 55.20 55.87 56.49 57.84 57.79 57.50 57.59 57.92 57.28 57.18 58.12 60.09 61.58 63.11 62.56 63.19 62.78 62.56 59.59 59.63
31.98 31.67 32.09 32.14 32.84 33.14 33.81 35.90 36.55 37.30 40.41 45.02 45.12 45.54 36.22 51.00 50.64 51.57 50.70 52.36 56.43 56.55 55.44 55.30 54.18 56.75 57.93 57.75 57.96 58.97 59.87 58.91 59.53 61.39 61.76 62.18 62.92 63.78 63.71 61.93 59.34 57.57 55.14
34.03 31.68 30.41 30.84 31.81 31.56 33.00 33.78 34.01 34.46 36.60 38.95 41.97 45.03 47.27 48.90 47.73 49.40 50.94 54.41 55.45 56.11 54.51 54.49 57.02 58.97 59.04 58.93 59.28 59.88 60.09 60.85 61.25 61.49 62.06 62.50 62.22 62.55 59.95 58.53 58.74 57.15 55.74
32.67 32.02 30.40 29.27 30.38 29.95 30.59 31.88 32.13 32.86 34.12 36.38 37.48 39.19 41.92 46.61 48.19 48.10 49.54 49.37 53.45 55.81 54.56 57.32 58.00 58.40 58.53 58.64 58.49 58.97 59.90 60.54 60.99 60.42 61.80 62.52 62.26 58.70 59.88 59.55 57.59 54.59 52.93
31.54 31.35 30.60 30.31 28.81 28.37 28.63 29.70 30.64 31.57 32.10 32.58 34.38 35.61 36.72 39.41 43.82 45.71 48.88 50.41 51.87 51.49 53.03 54.93 56.52 55.72 56.60 56.84 57.02 57.45 45.71 34.51 52.01 42.25 59.19 59.86 61.49 60.79 59.30 58.08 55.11 50.57 48.40
30.45 30.48 30.06 29.87 30.12 28.80 28.12 27.76 29.08 29.40 30.22 31.02 32.10 33.61 34.31 34.94 37.50 39.88 42.20 45.18 47.98 52.22 53.58 55.10 55.94 55.12 55.93 57.51 57.09 46.12 38.69 34.99 46.50 35.07 57.18 59.40 59.99 62.00 59.52 56.87 53.38 50.75 48.03

GFSGL_sfc_wetblb_108.txt.gz
Wetbulb
55.89 56.38 56.77 56.72 56.91 57.10 56.90 57.15 57.35 57.74 57.55 57.10 57.17 57.10 56.91 56.93 57.43 57.09 56.99 57.08 56.91 57.84 59.25 60.26 61.80 64.46 61.86 62.59 63.49 62.28 60.68 61.57 59.85 61.09 62.86 66.99 70.33 69.59 68.82 68.87 68.44 68.99 68.21
55.41 55.43 55.69 56.10 56.24 56.06 56.20 56.58 56.98 56.27 56.81 56.46 55.96 55.58 55.44 55.51 55.87 55.43 54.58 55.01 54.50 54.22 55.27 56.58 57.57 60.25 63.13 63.88 62.53 63.27 62.36 62.82 60.63 61.34 62.38 63.58 66.87 69.33 68.78 68.01 67.49 68.00 68.37
54.66 54.54 55.02 55.46 55.53 55.45 55.56 55.87 55.74 55.42 55.29 55.12 54.95 54.36 54.35 54.48 54.38 54.85 54.45 53.42 53.33 53.33 53.43 53.90 55.06 57.60 60.56 61.66 62.10 62.06 61.81 62.24 61.87 60.71 59.63 62.43 64.63 66.19 67.16 67.71 66.93 67.74 68.32
53.73 53.68 53.77 54.00 54.58 54.51 54.83 54.57 54.58 54.36 53.82 54.12 53.94 53.78 53.90 54.02 53.89 53.60 53.20 52.99 52.75 52.62 52.46 52.44 52.83 54.73 56.85 59.09 60.93 62.04 62.39 61.19 61.25 59.88 59.84 60.78 63.17 65.36 64.72 62.31 63.25 66.29 67.10
52.54 52.71 53.02 53.44 53.38 53.33 53.15 53.32 53.36 53.34 53.40 53.62 53.38 53.42 53.47 52.36 52.01 52.01 51.03 51.26 51.03 50.53 51.29 50.84 51.95 52.83 53.25 54.28 56.60 60.29 61.91 61.13 59.34 58.90 58.81 59.06 60.28 62.06 62.08 62.81 63.51 65.56 66.80
51.50 51.59 52.34 52.40 52.24 51.41 51.51 51.84 52.11 52.47 53.07 52.62 52.14 51.81 52.00 49.40 46.73 46.98 48.26 48.30 48.49 48.72 48.55 49.55 50.88 51.62 53.04 51.20 51.26 53.21 57.21 60.61 59.62 58.73 60.03 59.51 60.14 60.76 61.33 63.96 63.01 62.88 62.11
49.56 50.11 50.49 50.78 49.78 49.83 50.48 50.87 51.54 51.61 51.78 51.61 50.16 48.03 48.29 50.56 45.84 44.72 45.74 48.82 48.97 47.87 48.98 48.56 50.44 50.45 51.33 54.92 53.90 52.90 52.95 51.93 53.24 60.33 59.12 60.59 61.41 61.84 62.75 63.39 64.64 62.66 62.78
47.58 48.11 48.81 48.68 47.93 48.13 47.39 50.25 50.94 50.73 50.54 49.27 47.79 50.97 50.94 49.90 45.25 43.63 44.30 47.20 48.03 47.17 47.48 47.72 50.56 50.99 52.68 54.21 58.08 58.82 59.79 60.45 61.23 59.79 60.78 60.15 63.02 64.78 64.80 64.85 65.99 65.32 68.77
44.78 45.75 45.97 45.74 44.77 46.36 47.65 49.27 50.23 49.87 48.15 48.89 50.05 49.87 47.73 47.90 44.84 42.61 43.63 45.94 46.38 45.20 46.42 49.06 50.22 51.16 49.08 46.08 56.34 57.70 57.95 57.38 56.72 51.18 52.18 52.31 51.79 50.66 58.05 65.71 63.53 63.41 63.19
43.00 43.14 42.25 41.71 43.25 44.81 47.03 48.21 49.83 47.36 48.06 47.58 47.51 47.01 46.58 47.83 44.77 42.44 44.23 46.82 44.55 45.12 47.52 49.13 46.52 49.00 46.03 44.29 53.56 56.48 55.23 59.23 60.07 56.92 54.99 53.12 52.48 58.15 50.98 61.96 61.79 60.81 59.86
41.96 41.08 40.58 41.31 43.08 44.44 46.21 48.51 47.18 47.60 45.69 45.23 45.90 46.04 46.92 48.61 47.50 42.13 41.87 44.06 44.32 44.83 45.84 47.53 51.98 45.64 43.76 43.69 43.04 54.91 58.10 59.37 55.32 57.30 59.14 56.36 56.90 56.92 57.86 60.90 62.02 61.39 59.05
40.03 39.62 39.73 41.12 43.28 44.97 45.78 45.44 46.44 46.55 45.13 44.70 45.89 45.91 47.08 48.04 44.06 43.10 41.45 41.40 42.99 45.12 45.64 48.75 51.99 43.41 42.32 42.14 42.97 45.40 43.95 48.06 56.42 56.12 55.37 55.70 56.92 57.26 60.15 61.19 61.57 62.09 62.09
39.01 38.93 39.08 41.81 43.50 44.25 43.68 44.43 45.56 45.39 44.85 44.72 45.60 45.77 45.93 48.32 46.43 43.37 41.80 41.30 42.67 44.28 48.42 48.25 43.34 42.60 44.86 47.92 42.14 43.04 44.86 56.04 55.24 55.12 55.64 55.88 56.72 58.47 60.15 60.45 61.81 63.74 65.08
37.83 37.69 38.59 40.04 41.42 42.95 44.38 45.56 44.80 44.32 44.05 44.23 46.38 47.18 45.72 47.87 45.17 46.18 46.67 45.67 45.19 45.97 46.57 48.70 46.98 46.96 44.29 48.70 50.23 50.73 56.48 56.20 55.09 55.05 55.34 57.30 59.13 59.22 59.64 60.66 60.92 62.63 61.60
36.68 37.00 37.99 38.72 40.03 41.64 41.70 43.32 43.50 44.94 43.95 43.54 47.36 47.54 47.91 44.92 44.97 43.08 41.49 42.44 42.10 48.80 50.78 55.21 55.34 56.23 58.25 58.23 58.07 57.06 58.31 58.38 57.15 57.16 56.88 57.21 57.55 58.13 59.51 61.07 61.43 61.52 58.60
36.03 36.50 37.41 38.10 39.14 40.03 40.26 41.82 41.30 40.38 40.07 39.96 39.68 42.11 47.01 42.47 40.32 39.44 38.85 38.35 38.08 41.59 52.33 55.09 55.65 56.05 56.00 55.81 56.30 56.28 57.51 55.56 56.98 57.19 57.77 57.57 56.94 58.79 59.32 60.43 61.14 61.18 58.78
35.73 35.98 37.07 36.66 37.16 38.17 38.95 39.13 39.50 42.60 41.80 41.39 40.44 39.96 38.64 39.31 38.54 37.86 38.37 37.89 39.24 44.13 56.17 57.07 56.81 55.18 56.25 57.94 57.59 56.81 57.64 58.72 59.42 58.84 58.77 58.88 59.73 60.33 58.30 58.70 59.16 59.71 59.27
35.65 35.48 35.96 36.31 36.46 37.79 38.21 38.54 39.62 40.79 42.26 47.57 45.88 42.08 41.55 39.50 39.24 38.62 38.64 42.36 54.15 52.35 58.15 58.54 56.45 57.23 58.05 57.44 56.86 57.87 59.53 59.07 59.45 59.81 60.27 60.25 61.63 61.04 59.50 59.29 60.20 60.72 59.57
34.14 34.20 34.49 35.64 36.40 36.83 37.25 38.54 40.48 40.92 42.82 45.62 49.70 45.50 44.73 42.84 41.45 40.51 39.45 52.61 55.06 56.91 57.72 58.91 57.78 58.31 58.60 57.76 56.64 56.93 58.99 60.43 60.72 61.02 60.90 61.27 62.50 62.58 62.26 60.61 60.22 52.57 53.55
33.79 33.14 33.44 35.08 34.59 35.09 36.43 37.06 37.74 39.27 42.02 48.68 48.21 48.72 51.73 45.83 49.72 51.61 56.63 54.28 54.36 56.83 59.88 59.79 58.34 58.89 58.88 58.37 58.20 58.50 57.69 57.79 60.19 61.24 61.82 62.18 62.01 61.90 62.50 62.68 61.24 58.67 59.50
35.70 32.80 32.10 33.65 33.47 34.27 34.95 35.82 36.62 37.71 39.18 41.04 44.52 46.60 35.02 45.31 50.23 50.39 53.83 54.56 55.11 58.11 60.30 59.73 59.36 59.43 59.52 59.41 59.63 59.04 58.33 58.47 59.41 60.82 61.84 62.39 62.16 61.29 62.57 63.27 62.95 60.50 60.28
37.86 34.62 31.33 31.80 32.32 33.04 33.85 34.88 34.87 35.60 36.97 37.96 41.72 43.62 38.37 49.40 50.18 51.72 54.03 55.74 57.83 58.91 60.15 59.89 59.42 59.60 59.57 59.86 60.88 60.88 59.63 60.01 61.54 62.02 62.15 62.18 62.61 63.22 63.55 63.29 62.36 58.54 56.30
37.18 36.76 34.27 31.43 30.97 31.10 32.47 33.13 33.84 34.40 35.91 38.08 39.29 39.70 40.58 44.29 50.67 51.32 53.25 57.90 59.19 59.22 59.73 60.30 60.42 59.63 60.08 61.03 61.97 62.22 61.55 61.65 62.27 62.95 62.50 62.26 61.87 62.65 60.91 60.10 59.49 58.06 57.32
37.37 36.17 35.42 33.18 31.67 30.42 30.19 31.36 32.16 32.28 33.62 33.98 35.67 37.36 38.28 39.39 41.71 44.11 51.16 53.60 57.44 58.71 59.45 59.75 59.95 60.52 60.54 60.05 60.43 60.35 60.74 59.13 61.51 61.27 61.85 62.60 62.33 60.74 60.31 59.59 60.45 59.91 58.46
37.21 36.07 34.44 33.49 33.18 32.25 30.14 30.13 30.26 30.85 31.56 32.03 33.32 34.41 36.23 36.47 40.46 41.04 41.71 43.32 52.22 56.81 55.82 55.56 59.66 59.37 60.22 60.16 60.00 57.69 42.25 35.42 52.46 40.45 59.91 60.06 61.18 62.08 61.40 57.81 56.18 54.24 53.50
36.26 35.56 33.92 32.77 32.53 32.06 32.58 31.56 30.63 29.87 30.06 30.57 31.75 33.18 33.50 35.04 36.42 38.44 40.61 41.80 45.33 51.32 52.49 54.42 58.19 57.21 59.53 59.73 55.71 39.03 35.17 34.67 46.95 35.22 57.00 59.66 59.29 61.55 59.94 54.26 51.21 50.47 50.83

GFSGL_sfc_wetblb_111.txt.gz
Wetbulb
59.74 59.74 59.07 59.29 59.43 59.64 59.41 59.54 59.63 60.13 59.90 59.18 59.06 59.08 58.84 58.92 60.24 59.64 58.89 58.80 58.61 59.23 59.57 58.74 58.98 60.38 60.10 61.18 62.33 62.66 62.51 62.64 58.55 61.10 63.25 65.42 67.38 68.43 68.88 70.24 69.61 69.96 67.73
58.57 57.92 58.20 58.38 58.73 58.69 58.71 59.03 59.39 58.83 59.06 58.69 58.50 58.11 57.91 57.09 58.16 57.88 56.88 57.01 56.94 56.68 56.73 56.79 55.98 55.97 58.16 59.25 60.11 61.55 61.33 62.13 60.05 58.47 62.65 61.65 65.31 66.64 65.96 67.59 67.98 67.94 68.48
57.13 57.10 57.33 57.53 57.77 57.97 58.31 58.57 58.47 58.23 57.91 57.79 57.33 56.63 56.11 56.28 55.98 56.33 55.91 56.23 56.73 57.01 56.35 56.14 55.10 54.94 54.80 55.39 57.65 58.56 60.66 61.67 61.91 60.40 59.96 62.93 62.70 64.30 65.41 67.09 67.41 68.17 67.94
56.11 55.98 56.01 56.63 57.09 56.95 57.18 57.26 57.44 57.35 56.68 56.54 56.39 56.10 55.75 55.47 55.55 55.40 54.99 55.03 54.45 54.28 55.00 55.03 53.41 52.68 52.25 53.97 54.08 55.57 58.50 59.45 60.47 59.99 60.34 59.75 59.89 63.35 64.11 63.50 63.60 66.35 66.28
54.53 54.25 54.85 55.89 56.37 56.44 56.17 55.99 55.55 55.31 55.44 55.51 55.32 55.00 55.38 54.57 53.75 53.68 53.05 52.57 52.22 51.53 51.81 51.86 52.43 52.44 52.35 51.87 51.35 52.66 53.15 53.98 57.55 58.75 58.86 59.33 58.28 57.70 60.32 62.90 63.12 63.74 66.56
53.81 53.61 54.43 54.70 55.12 55.41 55.22 53.79 53.30 53.53 53.86 54.40 54.14 53.63 53.20 52.80 48.36 47.19 49.08 50.88 50.86 50.12 49.61 50.97 51.68 51.17 51.38 49.98 49.85 49.90 51.18 52.91 52.73 55.74 58.15 57.90 58.15 60.26 60.61 60.93 62.31 61.28 61.80
52.77 53.11 53.21 53.54 53.16 53.71 53.09 52.19 52.46 52.55 54.21 53.35 52.71 52.78 53.32 53.49 46.88 45.69 46.26 49.68 49.98 49.94 50.19 49.91 49.31 49.59 49.70 50.24 49.42 49.55 49.42 49.10 50.35 53.84 56.27 58.19 59.21 61.12 61.92 62.03 63.04 63.24 63.31
51.44 51.16 51.22 50.87 50.43 50.53 50.07 50.52 51.42 52.59 53.22 51.68 51.71 52.26 52.16 50.44 46.22 44.32 44.70 48.62 48.49 49.92 49.96 50.73 48.60 48.93 49.16 48.88 50.15 51.22 52.71 55.43 57.64 55.87 57.30 59.65 61.27 62.44 62.59 63.16 64.06 64.61 65.60
49.52 49.08 48.49 47.80 47.06 46.97 46.63 47.64 50.40 51.24 50.47 50.21 51.40 51.21 50.36 50.45 46.32 43.69 45.20 48.60 48.03 47.59 49.34 49.83 48.88 48.89 46.15 43.75 47.68 47.59 48.33 50.70 54.60 52.24 52.12 51.31 48.30 48.52 54.91 63.47 62.08 61.74 60.48
46.54 45.95 45.94 45.78 44.84 44.42 43.62 46.23 48.60 49.27 49.29 49.79 50.21 50.32 49.35 51.07 45.85 43.50 44.59 47.28 45.75 45.15 45.98 46.67 46.15 46.54 43.98 43.02 46.67 46.54 47.75 52.17 56.62 59.38 60.20 55.91 50.49 56.07 49.89 60.85 61.06 59.41 61.04
43.90 43.82 43.92 43.81 43.32 42.81 43.74 45.94 47.70 48.27 48.49 48.72 48.50 49.08 49.82 50.13 49.72 43.71 41.74 44.27 44.17 43.84 44.15 45.20 48.12 43.34 42.14 41.00 41.24 46.36 49.73 52.48 55.47 57.21 59.52 60.03 60.55 60.94 62.01 61.62 63.41 64.16 62.73
40.52 41.33 41.77 41.93 42.09 42.47 44.99 45.87 47.00 47.07 47.28 48.12 46.81 47.19 49.14 50.75 47.25 45.23 41.89 41.63 43.24 43.49 44.28 46.27 47.88 43.51 41.17 41.84 42.56 43.25 42.14 44.59 50.94 54.51 56.80 56.68 56.85 57.77 60.59 62.11 63.68 65.10 66.25
38.56 40.10 39.88 40.34 41.71 41.98 44.42 44.71 45.30 46.40 46.80 45.55 44.81 45.71 48.45 50.51 51.41 44.48 42.47 41.50 42.04 44.02 46.44 47.91 42.86 41.65 42.04 44.02 43.51 40.29 42.67 53.63 54.23 54.81 55.12 55.56 56.99 57.93 60.46 60.41 62.78 63.20 63.27
37.61 38.10 39.00 38.95 39.92 41.02 43.34 44.48 43.26 43.77 44.25 44.30 44.06 45.52 48.84 49.91 48.92 48.42 47.40 47.52 44.86 44.43 47.86 48.39 46.66 44.85 44.50 46.27 49.30 52.28 54.30 53.64 52.56 52.75 54.20 55.40 57.33 57.53 58.61 60.07 59.63 59.29 58.55
36.71 37.59 38.17 38.70 39.18 40.32 41.38 41.92 42.14 43.64 43.75 42.83 43.43 45.34 47.73 47.04 46.83 43.33 43.22 42.94 42.99 42.51 41.39 51.04 54.08 54.04 54.74 54.91 55.03 55.68 55.63 55.65 53.45 53.60 52.91 54.73 55.13 55.66 56.66 58.84 58.77 58.78 57.94
36.17 36.41 37.07 38.26 38.58 38.81 39.91 41.05 41.01 40.10 39.83 39.15 38.86 41.39 48.72 44.37 42.05 39.96 39.25 38.38 37.81 37.94 49.54 55.25 56.75 57.00 55.68 55.84 56.55 56.42 57.26 54.60 55.98 55.62 54.17 55.13 54.24 55.79 57.10 58.53 59.47 59.23 56.18
35.77 35.35 35.84 36.43 36.47 37.28 38.26 38.36 38.27 41.92 41.39 40.92 40.91 41.15 40.06 39.90 39.25 39.36 38.71 38.06 38.24 39.92 55.62 57.08 57.80 56.27 55.23 57.06 57.41 57.70 56.12 56.14 58.05 56.66 56.29 55.44 57.21 58.73 58.22 58.87 58.79 58.72 56.48
34.94 34.89 34.49 35.77 36.32 36.23 36.71 37.66 39.08 39.46 40.08 45.04 46.36 44.17 42.50 40.38 39.18 39.91 39.96 41.26 55.40 52.14 57.54 57.03 57.02 57.54 56.65 56.74 58.51 58.36 59.10 59.63 59.76 59.46 59.24 58.95 59.93 60.01 59.28 59.34 59.45 58.81 56.74
35.27 33.44 33.50 35.52 35.32 36.15 37.12 37.63 38.27 39.26 41.99 43.32 48.71 47.76 46.59 42.75 42.53 41.42 40.13 54.22 56.36 56.37 56.72 55.81 58.75 58.07 58.13 57.81 57.59 59.39 60.15 58.99 58.17 60.69 59.51 59.73 60.05 60.94 59.93 59.33 59.10 52.10 52.97
37.27 34.20 32.99 33.97 34.58 35.30 36.06 35.95 36.12 37.32 38.84 40.40 41.96 43.33 41.95 45.12 50.07 53.38 56.41 56.55 55.96 56.60 57.30 57.76 58.89 59.92 58.93 58.44 58.03 58.09 58.27 58.43 57.94 60.05 60.65 60.60 61.57 61.76 60.70 61.01 60.03 58.75 58.30
39.89 35.40 33.33 32.61 32.96 33.90 34.52 33.83 35.31 35.64 37.03 38.75 40.90 41.31 35.81 43.77 48.50 53.15 57.87 57.20 55.77 56.77 57.44 57.01 57.63 58.69 59.87 59.26 59.13 58.14 58.81 60.17 61.49 58.81 61.29 60.05 60.59 60.55 63.78 62.33 61.41 60.36 58.98
41.00 38.75 35.48 33.09 32.63 32.74 32.55 33.65 34.15 34.55 35.93 36.78 37.26 38.64 35.82 41.13 44.09 45.48 50.58 55.98 56.46 57.79 57.37 59.97 59.25 59.24 59.83 58.36 60.45 60.44 59.27 58.71 61.66 60.35 59.87 60.92 62.20 62.73 62.97 61.94 60.28 59.92 56.60
40.52 40.18 37.72 35.50 33.68 32.82 32.50 32.27 33.51 33.00 33.48 34.91 35.64 35.57 36.57 36.82 40.82 42.85 44.95 49.11 54.68 57.89 59.69 60.00 58.52 59.64 60.54 61.54 60.72 59.39 56.53 58.17 59.31 60.40 62.01 62.23 61.46 61.90 61.80 60.91 60.36 58.51 57.96
40.19 39.51 38.25 36.67 34.77 34.16 32.53 32.36 32.01 30.91 31.84 31.91 33.79 33.61 35.00 35.90 38.02 38.87 41.98 46.23 50.66 56.35 58.36 60.38 60.56 60.62 61.20 59.50 59.09 57.56 55.64 55.17 59.89 59.90 60.29 61.29 61.42 60.01 61.13 60.03 58.68 58.81 57.85
38.84 38.39 37.45 36.53 34.94 34.92 34.52 32.96 32.26 31.96 31.76 31.59 31.87 32.05 33.34 34.40 35.90 37.12 42.44 44.13 48.80 51.86 53.10 55.81 59.49 59.65 56.42 53.96 54.16 51.50 39.48 35.70 48.25 40.97 60.39 60.00 61.70 61.36 59.99 57.54 55.30 56.84 56.95
38.09 37.48 36.85 35.90 34.66 31.89 33.43 33.30 33.26 31.89 32.09 32.04 31.82 31.56 32.12 32.72 33.15 34.88 36.45 39.57 42.86 46.47 48.99 50.86 53.46 55.84 53.66 51.38 45.98 37.91 35.55 35.05 41.11 35.71 49.70 60.27 61.07 61.18 59.64 55.92 52.98 56.00 54.26

GFSGL_sfc_wetblb_114.txt.gz
Wetbulb
61.38 61.31 61.34 60.69 60.71 61.32 61.22 61.15 60.96 61.80 60.96 59.64 59.20 58.87 58.68 58.65 59.09 58.80 58.54 57.81 56.77 56.32 56.77 56.62 56.04 56.56 55.35 55.06 55.14 55.66 55.50 56.55 54.93 57.28 60.00 61.36 61.76 62.42 63.82 65.00 65.40 64.91 66.39
59.98 60.03 60.42 60.83 61.00 60.77 60.40 60.33 60.72 59.68 59.92 58.86 58.40 57.90 57.69 57.50 57.57 56.93 55.98 56.34 55.43 54.90 55.08 54.72 54.56 55.43 54.09 54.01 53.54 52.58 53.15 54.71 54.77 53.94 57.43 58.35 59.42 61.02 62.76 62.05 62.23 62.33 63.49
57.94 58.30 60.12 60.34 59.97 59.98 59.31 59.47 59.04 58.17 57.71 57.90 57.35 56.93 56.35 56.18 56.15 56.14 55.59 55.27 54.93 54.46 53.74 52.83 52.50 52.66 51.99 52.11 52.58 51.32 51.44 52.55 52.88 53.20 54.45 57.88 59.54 60.27 59.97 60.17 62.49 63.31 65.12
56.07 56.39 56.46 57.28 57.60 57.49 58.04 57.94 57.59 57.30 56.32 55.81 55.74 55.88 55.69 55.69 55.28 54.98 54.40 53.72 53.33 52.79 52.44 51.78 51.13 50.92 50.76 50.95 50.76 50.25 50.84 50.25 50.97 50.67 51.16 54.23 57.31 59.26 59.50 57.78 57.81 61.37 62.16
54.34 54.39 55.05 55.92 56.39 56.32 56.24 56.85 56.80 56.03 54.99 54.63 54.29 54.56 54.75 54.54 53.96 52.96 52.62 52.10 51.32 50.34 50.76 50.72 50.61 51.29 52.12 51.13 49.66 48.72 48.29 47.58 47.37 46.75 47.40 50.25 52.25 56.17 56.43 57.85 57.27 59.17 61.12
53.53 52.86 54.35 54.58 54.76 54.78 55.22 55.29 55.21 53.74 53.60 53.80 53.35 53.72 53.27 53.05 49.00 48.47 49.50 50.50 49.51 48.26 47.71 48.79 49.63 50.42 49.69 49.71 49.76 50.02 49.38 47.38 46.40 46.48 46.58 46.84 49.46 52.49 57.03 57.34 56.91 56.96 56.05
52.16 52.26 52.41 52.78 52.14 52.31 52.36 51.70 51.33 51.21 51.86 52.41 52.21 52.79 51.90 52.45 47.81 45.83 47.36 49.40 47.39 47.75 47.74 47.46 47.62 49.32 49.15 48.79 48.73 48.71 48.63 48.39 48.39 47.67 46.35 46.91 48.13 51.67 54.89 56.93 56.83 56.95 56.89
50.55 50.59 50.65 49.70 49.12 49.26 48.73 48.29 48.89 49.39 49.67 50.53 51.22 51.68 50.93 51.48 46.82 45.09 45.69 47.54 47.81 48.04 48.52 48.69 48.26 47.82 48.75 48.17 47.70 47.32 47.02 47.50 48.68 50.34 49.79 49.55 50.80 52.75 54.27 57.15 57.26 57.94 59.21
47.93 47.08 46.97 46.48 45.83 45.92 45.41 45.60 45.86 46.65 47.72 48.92 49.61 48.86 49.22 50.87 46.32 44.81 44.91 48.47 47.64 47.82 48.53 47.85 47.17 46.41 45.20 43.27 46.38 45.93 45.91 46.23 48.51 47.91 47.03 46.54 45.61 46.90 50.56 57.23 56.57 56.09 55.12
43.80 43.67 43.97 44.19 43.93 43.48 44.05 43.92 45.04 45.07 46.10 47.90 48.05 48.57 48.49 49.34 46.26 44.71 45.14 48.08 47.09 45.90 45.64 45.73 45.29 44.82 42.87 42.31 44.17 44.90 44.14 45.37 47.27 48.01 49.51 50.78 48.94 50.30 48.55 55.99 57.36 56.03 56.17
42.18 41.75 41.11 42.12 42.88 43.09 43.19 43.58 43.37 45.76 46.16 46.45 46.95 48.04 48.86 47.67 48.30 45.07 44.00 46.09 44.75 44.89 44.63 44.73 45.74 43.55 41.84 40.96 40.61 45.57 45.35 46.31 46.93 48.34 50.23 52.51 54.56 57.30 57.14 55.18 56.07 57.86 57.35
40.05 39.74 40.27 41.57 41.21 41.78 42.55 42.83 43.83 45.00 45.18 45.51 46.34 46.56 47.17 48.45 47.68 45.98 42.10 41.91 44.23 44.68 44.62 45.32 45.79 43.04 41.44 41.12 41.61 42.26 41.21 42.52 45.25 46.26 49.51 52.12 53.96 55.93 57.69 58.78 58.90 59.83 60.85
37.92 37.84 38.81 40.35 40.24 40.79 40.50 41.03 42.82 44.51 43.10 43.48 43.73 44.30 44.91 48.16 49.35 45.54 43.41 41.84 43.09 45.37 46.11 44.96 42.44 41.62 41.18 42.51 41.74 42.19 41.41 51.53 49.27 47.90 49.09 51.25 53.76 56.20 58.28 59.01 60.06 60.60 61.26
36.84 36.75 38.03 38.34 39.18 40.08 40.58 41.24 41.20 41.22 40.94 42.32 42.82 42.99 44.51 46.50 48.06 49.20 49.20 47.78 45.53 46.00 45.66 46.33 45.04 43.84 43.80 45.22 46.39 51.93 53.11 52.97 51.37 52.20 53.52 55.12 56.55 56.19 57.29 58.65 57.97 58.81 58.50
36.41 36.91 37.28 37.41 38.16 38.49 38.76 39.57 40.17 41.73 41.50 41.06 42.12 43.01 43.65 44.36 46.66 43.99 42.48 44.99 46.12 44.84 40.89 44.95 52.28 53.81 54.22 54.44 54.02 53.92 53.98 53.78 52.21 52.77 52.66 53.38 53.07 53.26 55.59 58.02 58.12 58.30 56.95
34.86 34.93 35.25 35.40 36.66 36.73 37.32 38.06 39.51 39.20 39.28 38.87 38.50 39.92 43.53 42.57 41.27 40.65 40.01 39.39 38.75 38.07 43.30 50.61 52.18 52.50 53.48 54.31 54.89 53.79 54.58 53.10 54.05 52.30 52.42 53.00 52.81 54.48 57.55 58.13 58.40 56.11 53.50
34.48 34.22 33.85 34.74 35.67 35.21 35.80 36.64 36.53 39.76 40.64 40.68 40.35 40.35 39.26 38.59 38.93 39.78 39.67 38.57 37.90 38.91 50.92 53.56 53.90 54.81 54.06 54.23 55.64 54.58 53.94 54.44 55.79 54.40 53.70 53.58 54.81 55.38 54.82 56.61 56.11 55.31 54.73
35.56 34.81 33.34 34.40 34.72 35.67 36.39 36.74 37.29 37.61 38.90 41.07 43.24 41.36 39.70 39.12 39.00 39.83 39.76 41.46 53.86 49.66 54.60 55.60 56.05 56.22 55.18 55.05 55.24 56.00 57.06 57.13 57.26 56.61 56.88 56.39 57.14 56.29 55.85 56.29 55.89 55.45 55.37
36.24 34.41 33.51 33.54 34.65 35.61 35.47 35.45 36.36 36.74 37.98 39.47 42.84 40.41 39.33 38.52 41.69 42.66 41.63 53.33 53.69 54.84 55.26 55.85 57.19 57.62 57.03 56.23 56.24 56.87 57.37 57.19 56.91 58.26 58.10 57.89 58.45 58.23 57.56 57.76 55.31 49.58 51.89
37.24 35.10 34.48 33.11 33.74 33.73 33.58 33.94 34.12 34.96 36.54 37.89 38.10 37.25 37.26 41.02 44.56 45.89 50.83 55.61 55.49 53.98 54.68 55.09 56.42 57.89 57.84 58.36 57.10 56.97 56.73 56.00 57.91 57.96 58.42 58.39 59.34 59.46 58.61 57.49 56.89 56.57 54.97
40.25 37.65 35.22 34.12 33.96 33.16 32.92 33.50 33.28 33.59 34.08 35.12 36.10 36.38 33.80 38.37 40.78 42.31 45.76 49.70 50.68 52.59 54.74 55.89 56.86 55.80 55.82 57.75 57.74 57.70 58.43 58.55 58.25 58.83 59.26 59.47 59.91 59.12 59.89 59.13 58.26 54.28 52.01
40.45 39.89 37.08 34.94 34.61 33.16 33.29 33.14 32.72 32.35 32.78 33.12 33.59 34.46 33.60 36.98 37.52 38.99 42.03 44.42 47.04 49.24 55.67 57.07 57.25 56.38 58.51 55.54 55.54 54.83 55.21 55.19 56.24 59.24 59.80 60.22 60.29 60.16 59.88 58.86 56.21 54.15 52.66
39.81 38.88 38.23 36.43 35.83 33.83 33.66 32.75 32.28 32.06 31.96 32.09 32.35 32.44 33.31 34.02 34.50 35.61 39.03 41.61 43.10 50.75 53.06 54.95 52.75 51.75 53.93 52.93 51.66 48.75 46.44 47.68 51.94 55.55 60.05 59.84 59.90 59.71 59.75 58.26 56.94 54.77 53.51
38.35 37.68 36.77 35.77 34.60 35.62 34.15 33.20 31.91 31.68 31.98 31.86 31.80 31.62 32.16 32.72 33.09 33.74 35.43 38.02 40.64 45.23 49.34 50.41 52.56 50.55 48.23 46.81 45.94 44.73 41.09 38.76 46.62 47.22 55.10 60.13 59.49 58.33 58.55 58.71 58.63 55.87 53.53
36.89 36.69 35.04 34.44 32.65 33.14 33.93 33.98 33.42 32.32 31.86 32.05 31.81 31.68 32.15 32.53 32.46 33.21 34.41 36.33 38.85 40.73 44.83 47.81 48.83 49.37 48.05 44.67 42.57 40.63 36.58 34.90 38.94 36.60 47.91 60.20 59.32 58.15 56.06 54.11 55.49 55.39 53.86
36.91 35.79 35.10 33.97 32.98 30.96 31.45 32.21 33.03 33.35 32.78 31.86 32.10 32.10 31.82 32.08 32.45 33.16 33.35 34.96 36.47 38.07 39.70 43.16 45.76 47.15 44.70 42.61 39.18 35.58 33.98 33.62 36.45 35.05 40.50 59.02 59.16 58.17 55.93 53.90 54.27 53.89 52.49

GFSGL_sfc_wetblb_117.txt.gz
Wetbulb
53.74 53.72 53.25 53.09 53.56 53.74 53.58 54.20 54.56 54.82 55.27 55.36 55.21 54.94 54.88 54.67 54.78 54.46 54.26 54.64 54.03 53.21 53.58 53.29 53.31 54.22 52.18 51.52 51.61 50.96 50.76 50.70 48.46 49.64 53.00 54.57 55.75 57.50 59.12 60.11 61.22 61.35 61.68
52.51 52.11 51.62 52.57 52.85 52.78 53.02 53.61 54.10 53.53 54.07 54.40 54.74 54.41 54.62 54.49 53.32 52.92 52.88 53.51 52.75 52.12 52.59 51.37 50.95 52.41 49.26 49.79 50.32 49.85 49.97 49.72 49.11 46.96 48.58 50.69 51.99 54.66 57.35 58.08 59.63 61.70 59.06
51.42 50.83 51.16 51.31 51.48 51.58 51.98 52.57 52.95 52.70 52.82 52.92 52.84 52.59 53.11 52.98 52.73 52.51 52.23 51.88 51.02 50.41 50.08 49.46 49.19 48.64 47.07 47.51 47.81 48.23 49.05 50.31 49.91 48.32 47.29 49.12 50.49 52.37 54.31 57.44 58.43 59.15 61.49
50.34 49.52 49.17 49.59 50.13 50.46 51.31 51.73 52.26 52.49 51.27 50.89 50.99 52.03 52.60 52.77 52.63 51.46 50.58 48.91 48.88 49.29 49.15 48.40 48.05 48.18 48.18 48.18 47.34 47.52 48.28 47.69 48.06 47.72 47.28 46.99 46.94 48.83 51.34 52.32 55.95 56.44 57.61
49.37 48.50 48.51 49.20 49.83 50.02 50.28 50.90 51.40 50.92 50.64 50.91 50.91 50.85 51.02 51.53 52.53 48.56 49.17 48.24 48.65 49.26 49.12 48.26 48.79 50.27 51.72 50.48 48.59 48.41 47.72 46.52 46.38 45.36 44.64 44.05 44.16 44.72 45.56 49.85 51.50 55.63 56.32
48.34 47.99 49.12 49.07 48.77 48.18 47.79 47.49 47.22 47.32 47.75 48.76 49.58 51.11 51.49 52.36 48.14 48.24 48.69 49.00 48.79 47.31 46.55 47.11 47.62 49.53 48.21 48.91 49.21 49.59 48.81 46.63 45.52 44.98 44.09 43.67 43.97 44.52 46.83 47.95 50.01 52.50 53.72
47.11 48.19 47.55 46.58 46.02 45.37 45.61 45.08 44.54 44.52 44.81 45.97 47.29 49.93 50.59 50.08 46.92 46.16 47.47 48.51 47.00 46.76 47.27 47.81 46.36 47.50 48.46 48.24 48.37 48.51 48.20 48.26 48.56 46.91 44.81 44.84 45.15 45.98 45.99 46.48 49.35 51.93 54.50
44.66 44.23 43.97 43.30 43.35 43.34 42.73 42.29 42.49 44.24 44.91 43.64 45.03 47.47 48.47 48.76 46.35 45.15 45.90 46.82 47.42 47.09 46.60 46.07 46.58 47.28 48.00 47.45 47.12 46.53 46.34 46.78 47.39 47.89 47.27 47.11 47.00 47.01 47.30 47.54 48.81 50.89 54.94
41.14 41.16 41.51 41.53 41.18 42.06 42.15 42.38 43.11 43.23 41.94 42.40 44.84 46.08 46.95 47.75 45.40 44.53 44.85 45.99 46.38 46.46 46.68 47.27 47.75 46.32 45.11 43.13 44.59 44.27 44.33 45.05 47.68 47.33 46.16 44.93 43.95 44.20 47.39 49.53 47.97 50.83 50.26
40.10 40.10 40.58 39.50 39.13 41.03 41.54 41.63 42.48 40.41 41.48 44.57 45.75 46.15 46.74 47.10 45.41 43.65 43.79 46.56 46.66 47.24 47.36 46.10 45.57 44.98 43.12 41.99 43.61 43.74 43.06 44.09 45.57 46.51 47.30 46.70 45.26 45.73 45.87 47.48 47.58 47.45 51.60
39.95 39.82 39.27 39.18 40.29 40.48 40.42 41.45 41.92 41.62 42.88 44.35 44.74 46.01 46.91 47.39 46.18 43.49 43.27 46.04 46.35 44.78 44.82 45.55 46.03 43.89 41.71 40.96 41.71 44.22 43.97 45.41 45.78 46.31 46.11 47.44 48.77 49.53 51.78 51.03 50.43 50.86 51.39
38.22 37.72 38.05 38.47 39.88 40.59 39.72 40.12 40.39 41.55 42.98 42.98 42.86 43.69 44.42 45.01 44.89 44.18 43.25 42.41 44.32 44.45 44.75 45.62 45.87 43.19 41.52 41.38 41.14 41.24 40.89 42.09 44.31 44.49 45.02 45.79 47.30 50.04 52.52 54.66 52.44 55.11 56.93
36.88 36.86 37.29 38.37 38.81 39.37 39.36 38.94 39.47 40.63 40.87 40.67 41.09 42.18 42.99 44.68 44.55 44.07 43.04 42.55 43.10 45.34 46.23 45.53 43.10 41.95 41.33 42.19 42.46 40.96 40.95 46.11 47.56 44.12 43.65 45.34 48.49 51.67 54.47 55.42 55.62 55.65 55.98
35.80 35.50 36.40 36.56 36.91 38.22 38.23 38.72 38.82 39.25 39.60 40.13 40.26 40.40 41.67 43.02 44.25 46.23 47.43 47.18 45.08 46.39 47.25 46.94 45.18 42.96 42.85 44.10 44.08 49.60 52.19 52.81 51.84 51.30 51.16 49.52 52.00 52.88 53.46 54.63 55.44 55.80 55.20
35.80 35.40 35.21 35.44 35.85 36.33 37.31 37.72 38.30 39.47 39.63 38.64 39.53 40.66 40.95 41.36 42.68 41.68 41.02 42.58 44.07 44.22 41.45 44.85 47.99 51.34 51.70 53.07 53.91 54.19 53.57 53.18 51.82 51.43 52.26 52.50 53.85 54.48 54.42 57.03 56.36 56.18 55.19
34.43 33.91 33.89 34.54 35.42 35.69 36.04 37.07 38.80 38.73 38.90 38.43 38.49 38.77 41.25 39.92 38.98 38.52 38.48 38.68 38.51 38.35 42.42 46.18 50.17 53.07 52.74 51.73 51.89 53.53 53.61 51.90 52.19 52.02 51.73 52.08 52.45 51.99 51.24 55.44 55.72 55.44 51.81
33.38 33.35 33.44 33.96 34.28 34.61 35.42 35.48 35.05 38.23 39.76 39.76 38.82 38.67 37.60 37.26 37.55 39.38 39.96 38.38 37.87 38.44 46.38 53.22 53.80 54.62 52.71 53.58 54.07 53.60 54.22 54.64 53.85 52.43 51.67 51.92 55.26 55.50 53.89 55.87 54.74 53.53 51.99
35.82 35.62 33.53 33.11 33.87 34.23 34.47 34.71 35.63 35.57 36.36 38.12 39.55 37.69 37.04 36.91 38.91 39.74 41.84 42.90 52.41 50.17 53.54 53.41 54.09 55.03 52.84 54.18 55.39 55.07 56.19 56.73 55.76 53.58 53.77 54.87 56.60 56.28 55.55 54.93 54.87 53.55 53.91
36.21 34.61 34.43 34.16 33.87 34.20 34.16 34.64 34.22 34.78 35.24 35.76 37.02 36.40 36.34 37.33 38.89 40.77 43.24 49.58 50.12 51.15 52.44 53.85 55.19 55.41 55.75 55.93 56.36 56.62 56.60 55.77 55.46 56.29 56.17 55.23 56.80 55.95 55.57 55.93 54.62 50.00 50.27
36.52 35.73 35.30 34.70 33.60 33.44 33.19 33.03 32.82 33.07 33.40 33.67 33.72 33.50 34.22 37.37 37.83 39.27 43.13 44.16 46.62 48.86 52.01 53.50 55.71 54.66 55.47 54.31 52.92 53.56 54.32 55.49 57.18 57.23 57.09 57.60 57.64 56.70 56.01 56.15 55.19 52.27 49.09
37.51 36.22 35.37 35.10 33.46 33.56 32.76 32.65 32.76 32.51 32.14 31.95 32.43 33.70 32.15 34.79 35.60 36.35 38.93 40.24 42.58 47.55 50.65 49.54 47.91 48.99 48.15 47.81 46.28 46.19 47.88 49.67 51.76 57.32 57.91 58.58 58.40 57.38 57.86 55.67 52.88 50.36 48.90
36.65 35.91 34.08 33.69 34.98 33.39 33.15 32.46 32.34 32.24 32.17 31.61 31.81 33.02 32.33 33.95 34.16 34.80 36.40 38.62 40.67 42.81 48.07 49.91 46.51 45.07 44.48 43.67 42.55 41.66 41.37 42.68 45.17 48.57 58.06 58.75 59.05 58.13 56.68 55.21 52.96 51.38 50.94
35.30 33.83 32.38 30.90 32.19 33.57 33.95 33.01 32.03 31.77 31.81 31.58 31.89 31.79 32.58 32.68 33.07 33.49 35.07 36.92 39.07 40.59 42.39 47.25 45.08 42.58 41.36 40.92 40.36 40.09 38.68 38.56 41.28 44.65 52.82 57.78 58.28 57.22 56.13 54.63 53.56 52.03 50.30
33.90 32.44 31.83 30.00 30.14 29.58 30.03 31.54 32.21 31.64 31.44 31.62 31.48 31.29 31.61 32.03 32.77 32.99 33.53 35.41 36.94 38.64 40.61 42.49 43.42 40.12 39.10 37.90 37.69 37.36 36.00 35.22 39.62 39.62 45.66 56.77 56.01 55.19 57.34 56.43 54.51 51.67 48.99
33.09 32.43 31.19 30.27 29.73 29.00 28.09 28.77 28.74 31.65 30.82 31.28 30.99 31.20 31.26 31.59 32.37 32.97 33.37 34.25 35.34 36.55 37.15 39.36 39.28 39.15 37.72 36.21 35.04 34.73 32.67 32.31 35.19 34.43 42.28 54.70 55.11 53.80 55.17 54.16 54.20 52.31 49.76
30.68 31.54 31.12 29.86 29.70 29.25 29.01 27.81 27.53 28.49 29.00 29.88 30.63 30.66 30.51 30.52 31.36 32.17 32.92 33.41 33.39 34.63 35.78 36.14 36.67 37.98 36.58 35.34 33.67 32.11 31.53 31.94 32.68 32.80 38.95 54.38 55.11 53.42 52.44 51.98 50.02 49.65 50.51

GFSGL_sfc_wetblb_123.txt.gz
Wetbulb
52.51 51.09 51.71 51.70 52.90 52.39 51.58 51.48 51.66 51.51 52.28 52.27 52.58 52.47 52.62 52.21 51.93 50.84 50.61 50.88 50.96 51.01 51.43 51.12 51.03 50.91 49.69 49.29 48.67 47.74 46.92 46.17 44.37 46.18 46.95 47.34 48.03 49.27 50.39 50.80 51.95 50.80 53.55
48.91 48.68 48.38 48.48 48.53 48.42 48.82 49.24 50.11 49.97 50.41 50.71 51.82 51.70 51.25 50.87 50.01 49.72 49.71 50.11 49.95 49.59 49.39 48.71 48.84 50.42 47.62 47.48 46.84 46.46 46.66 46.96 45.27 43.71 45.46 45.51 45.46 47.46 47.69 47.94 49.97 52.96 50.41
47.75 47.17 46.86 46.59 46.84 46.50 46.62 47.00 47.67 48.10 48.02 48.33 48.89 49.15 49.55 50.06 49.98 49.66 49.78 49.91 48.46 47.98 48.11 47.80 47.36 47.14 46.25 46.83 46.37 46.25 46.59 46.80 45.90 44.03 43.51 45.23 45.96 46.13 46.52 47.56 47.71 46.97 49.14
46.66 45.62 44.76 44.25 44.16 43.85 44.16 44.25 44.94 45.34 44.92 45.20 45.74 47.01 47.98 48.79 49.36 49.64 49.65 47.85 47.50 49.03 49.20 47.97 47.21 46.91 46.45 46.44 46.15 45.92 46.09 45.62 45.09 44.38 43.84 44.00 44.86 44.96 44.37 44.24 43.80 44.41 44.86
44.65 43.41 42.55 42.96 43.08 42.99 42.67 42.80 43.05 43.21 43.43 44.02 44.63 45.51 45.46 46.46 49.08 48.44 48.29 47.43 47.28 47.75 47.01 47.71 47.49 48.38 50.78 50.34 48.55 47.15 46.55 45.93 45.59 44.69 43.93 44.36 44.31 43.83 43.38 44.96 42.89 43.68 44.57
41.56 41.00 41.57 41.32 41.78 41.11 41.03 41.10 40.99 40.99 41.16 41.86 42.48 43.08 42.35 44.81 46.51 46.90 47.57 45.83 47.83 47.53 47.48 47.41 47.15 48.46 47.56 48.87 49.30 49.63 49.28 46.74 45.19 44.41 44.08 43.71 44.22 45.03 45.70 44.53 42.11 41.44 40.56
39.48 40.38 40.17 39.81 39.48 38.72 39.61 40.03 39.59 39.18 39.17 39.70 40.47 40.70 41.02 42.16 44.24 44.40 46.11 45.95 46.48 47.05 46.92 45.82 45.45 46.73 47.96 47.39 48.05 48.61 48.27 47.91 48.00 46.30 44.72 45.27 44.77 45.80 45.88 45.14 44.54 42.37 42.47
38.07 38.44 38.81 38.09 37.95 37.79 37.57 38.15 37.96 38.14 38.90 41.95 39.44 40.01 40.42 42.69 44.08 43.50 44.62 45.95 46.16 46.13 45.15 44.93 44.62 45.11 46.18 46.87 46.83 46.51 46.81 47.31 47.84 48.08 47.51 47.34 47.26 47.46 46.96 46.50 44.91 45.17 42.96
35.95 36.65 37.29 37.17 36.43 36.53 37.00 37.06 37.26 38.30 40.90 41.54 42.51 41.23 41.72 44.11 43.83 43.22 43.32 44.31 43.58 43.41 44.54 45.62 45.79 45.97 45.69 44.16 45.85 45.34 45.34 45.74 47.34 47.03 46.32 45.33 43.80 43.11 45.38 47.08 45.01 43.95 41.64
35.26 36.25 36.92 36.46 36.08 35.71 35.99 37.18 40.17 40.24 40.30 41.45 42.07 44.00 43.40 42.03 42.66 42.37 42.43 42.63 41.75 42.56 43.88 45.37 46.04 45.97 44.04 42.83 44.28 44.91 44.06 44.83 46.16 46.58 46.74 45.72 44.60 45.02 44.79 45.53 46.08 44.09 43.97
36.53 35.94 36.13 36.26 37.14 38.91 38.78 39.40 39.68 39.76 40.20 40.88 41.51 42.40 42.96 43.40 42.31 41.62 41.57 42.38 41.79 42.86 43.74 44.96 46.72 44.24 42.18 41.45 42.55 44.23 44.10 45.66 45.69 46.28 46.17 46.44 46.87 46.85 46.53 46.31 46.57 45.85 44.15
36.71 35.93 34.52 35.27 37.63 38.37 38.00 38.33 38.79 39.04 39.26 39.83 40.40 41.11 42.73 43.64 43.32 42.55 41.35 41.23 42.96 42.92 43.97 45.26 45.86 43.83 42.63 42.10 41.80 42.23 40.94 41.95 43.56 43.06 43.42 44.09 45.41 46.29 47.34 47.66 47.16 47.09 46.67
36.02 35.61 35.83 36.57 37.36 37.51 37.16 37.12 37.54 38.46 38.55 38.77 39.30 39.87 40.78 42.37 42.96 42.39 41.48 41.03 41.47 42.40 44.68 45.20 43.23 42.12 41.84 43.27 43.31 42.45 42.68 46.92 44.43 42.40 42.53 44.47 46.38 47.50 48.56 48.42 48.96 47.69 46.46
35.51 35.31 35.60 35.56 36.00 36.65 37.17 37.69 37.59 37.98 37.92 38.68 38.67 37.21 37.98 38.68 39.59 41.81 40.62 40.77 41.91 43.92 45.87 46.06 44.56 42.94 43.14 44.77 47.59 53.08 55.25 53.96 48.77 46.47 47.94 51.11 49.92 47.57 47.38 48.62 48.39 49.04 47.88
35.67 35.31 34.99 34.94 34.90 35.09 36.02 36.79 37.33 38.44 38.26 38.07 36.14 36.16 35.16 34.96 38.10 37.92 37.79 39.61 42.34 43.61 41.10 45.75 52.51 51.47 49.75 49.13 49.36 50.24 52.35 55.25 52.37 51.66 51.00 49.51 47.57 47.65 48.26 49.76 50.26 51.36 50.33
33.14 34.23 34.47 34.35 34.45 34.44 34.85 35.19 37.43 37.47 37.86 37.76 36.94 36.10 35.89 36.84 37.67 38.26 39.02 39.11 41.90 40.76 47.12 47.14 46.14 45.62 45.01 45.29 45.46 46.37 48.64 50.46 54.13 52.77 51.30 51.63 49.67 49.73 50.35 52.32 53.24 52.80 51.88
33.31 34.69 34.48 34.61 34.37 33.71 33.97 33.76 33.08 35.78 37.51 36.99 36.09 35.95 35.78 36.20 37.21 37.83 38.86 39.16 42.10 43.34 44.57 43.81 42.54 42.40 42.75 42.89 43.09 44.22 45.69 49.62 53.88 53.97 52.17 52.59 52.41 52.37 51.49 52.01 52.88 51.36 49.67
34.10 34.62 34.41 34.54 34.33 33.58 33.68 33.76 33.52 32.80 32.55 33.44 35.73 35.40 35.18 36.21 36.63 37.14 38.33 41.38 44.22 43.90 43.66 41.20 40.27 40.14 40.09 39.96 40.50 41.84 44.77 47.93 53.08 52.77 52.84 53.59 53.53 54.45 53.36 52.54 52.01 50.48 49.59
34.16 34.46 34.49 34.83 34.39 33.66 33.61 33.30 33.33 32.80 32.61 32.61 33.10 33.88 34.67 35.70 36.10 36.53 37.97 39.96 39.80 40.81 40.95 38.86 39.10 38.45 38.08 38.13 38.66 39.90 42.03 43.77 46.98 55.00 54.77 54.99 55.25 54.39 52.80 52.55 50.90 45.09 47.38
33.36 33.81 33.76 34.18 34.09 33.02 32.41 32.12 32.28 31.91 31.68 31.44 31.49 31.36 32.75 34.34 33.57 34.48 36.10 36.99 38.02 38.72 38.58 38.38 37.31 36.82 36.14 36.05 36.41 37.37 38.46 40.41 42.47 46.44 55.13 54.65 52.77 52.26 51.14 49.86 48.04 46.31 44.76
30.32 30.39 31.37 30.53 29.91 32.14 32.29 30.93 31.66 31.40 30.92 30.49 30.55 31.73 31.39 32.58 32.41 33.04 33.55 34.34 35.09 36.80 37.32 36.01 36.62 35.09 34.43 34.47 34.00 34.41 34.97 37.12 38.74 41.75 51.36 53.99 53.20 51.30 51.09 49.97 48.91 47.66 46.35
30.51 29.46 28.99 27.60 28.43 28.32 30.13 30.91 30.70 30.60 30.31 29.98 29.69 30.94 31.19 31.32 31.08 31.94 32.18 32.97 34.25 35.57 36.19 34.17 33.91 34.12 33.04 32.67 32.41 32.38 32.30 33.16 34.83 37.62 43.08 55.37 54.11 52.83 51.66 50.01 49.47 47.56 45.54
30.40 29.49 28.47 27.79 27.43 27.38 26.37 28.01 28.67 28.73 28.72 28.77 28.78 28.33 28.83 29.69 29.56 29.79 30.85 31.28 33.22 33.70 34.62 33.52 31.71 32.21 32.25 32.39 32.33 31.98 30.74 30.74 32.92 37.10 41.13 55.35 55.03 54.31 53.31 50.79 48.32 45.75 44.06
29.97 29.46 28.05 26.91 26.99 25.45 24.72 26.34 26.05 26.99 27.21 26.90 27.42 27.33 26.92 27.38 27.98 28.29 29.08 30.11 31.11 32.06 33.12 32.91 31.29 31.16 31.22 31.00 31.27 31.27 31.19 31.26 33.81 35.63 43.49 52.75 54.53 52.24 51.65 49.99 47.60 45.40 43.14
27.66 27.73 27.02 25.93 25.14 24.93 25.99 27.11 24.89 24.99 25.41 24.54 25.37 25.89 26.02 26.80 26.48 27.04 27.43 28.37 29.20 30.15 30.62 31.13 31.26 30.87 30.87 30.25 29.84 30.32 30.38 30.59 32.18 33.48 40.95 44.56 47.32 50.93 52.08 49.72 47.82 45.58 43.94
27.79 27.18 26.55 24.81 23.80 23.50 23.87 24.79 24.62 23.92 24.24 23.27 23.59 24.12 23.77 24.52 25.49 25.48 25.56 26.63 27.08 27.96 28.71 29.83 30.01 30.30 30.41 29.84 29.51 29.54 29.96 30.34 31.46 32.98 37.72 40.43 41.25 42.42 44.68 47.74 47.21 45.21 43.98